Time,TemperatureF,DewpointF,PressureIn,WindDirection,WindDirectionDegrees,WindSpeedMPH,WindSpeedGustMPH,Humidity,HourlyPrecipIn,Conditions,Clouds,dailyrainin,SoftwareType,DateUTC
2013-01-10 00:00:00,70.2,68.1,30.28,East,88,0.0,2.0,93,0.00,,---,0.00,VWS V14.01,2013-01-10 05:00:00,
2013-01-10 00:02:00,70.2,68.1,30.28,East,88,0.0,2.0,93,0.00,,---,0.00,VWS V14.01,2013-01-10 05:02:00,
2013-01-10 00:03:00,70.2,68.1,30.28,East,88,1.0,2.0,93,0.00,,---,0.00,VWS V14.01,2013-01-10 05:03:00,
2013-01-10 00:06:00,70.1,68.3,30.28,East,88,2.0,2.0,94,0.00,,---,0.00,VWS V14.01,2013-01-10 05:06:00,
2013-01-10 00:07:00,70.1,68.3,30.28,East,88,1.0,2.0,94,0.00,,---,0.00,VWS V14.01,2013-01-10 05:07:00,
2013-01-10 00:08:00,70.1,68.3,30.28,East,88,2.0,2.0,94,0.00,,---,0.00,VWS V14.01,2013-01-10 05:08:00,
2013-01-10 00:10:00,70.1,68.3,30.28,East,88,1.0,2.0,94,0.00,,---,0.00,VWS V14.01,2013-01-10 05:10:00,
2013-01-10 00:11:00,70.1,68.3,30.28,East,88,1.0,1.0,94,0.00,,---,0.00,VWS V14.01,2013-01-10 05:11:00,
2013-01-10 00:13:00,70.0,68.2,30.28,East,88,1.0,2.0,94,0.00,,---,0.00,VWS V14.01,2013-01-10 05:13:00,
2013-01-10 00:14:00,70.0,68.2,30.28,East,88,1.0,2.0,94,0.00,,---,0.00,VWS V14.01,2013-01-10 05:14:00,
2013-01-10 00:15:00,70.0,68.2,30.28,East,88,1.0,2.0,94,0.00,,---,0.00,VWS V14.01,2013-01-10 05:15:00,
2013-01-10 00:16:00,70.0,68.2,30.28,East,88,2.0,2.0,94,0.00,,---,0.00,VWS V14.01,2013-01-10 05:16:00,
2013-01-10 00:18:00,70.0,68.2,30.28,East,88,1.0,2.0,94,0.00,,---,0.00,VWS V14.01,2013-01-10 05:18:00,
2013-01-10 00:19:00,69.9,68.1,30.28,East,88,1.0,2.0,94,0.00,,---,0.00,VWS V14.01,2013-01-10 05:19:00,
2013-01-10 00:21:00,69.9,68.1,30.28,East,88,0.0,2.0,94,0.00,,---,0.00,VWS V14.01,2013-01-10 05:21:00,
2013-01-10 00:22:00,69.9,68.1,30.28,East,88,1.0,1.0,94,0.00,,---,0.00,VWS V14.01,2013-01-10 05:22:00,
2013-01-10 00:24:00,69.9,68.1,30.28,East,88,1.0,1.0,94,0.00,,---,0.00,VWS V14.01,2013-01-10 05:24:00,
2013-01-10 00:27:00,69.8,68.0,30.28,East,88,1.0,2.0,94,0.00,,---,0.00,VWS V14.01,2013-01-10 05:27:00,
2013-01-10 00:29:00,69.7,67.9,30.28,East,88,0.0,2.0,94,0.00,,---,0.00,VWS V14.01,2013-01-10 05:29:00,
2013-01-10 00:30:00,69.7,67.9,30.28,East,88,0.0,2.0,94,0.00,,---,0.00,VWS V14.01,2013-01-10 05:30:00,
2013-01-10 00:32:00,69.7,67.9,30.28,East,88,1.0,1.0,94,0.00,,---,0.00,VWS V14.01,2013-01-10 05:32:00,
2013-01-10 00:33:00,69.7,67.9,30.28,East,88,0.0,2.0,94,0.00,,---,0.00,VWS V14.01,2013-01-10 05:33:00,
2013-01-10 00:35:00,69.6,68.1,30.28,East,80,1.0,2.0,95,0.00,,---,0.00,VWS V14.01,2013-01-10 05:35:00,
2013-01-10 00:39:00,69.6,68.1,30.28,NE,43,1.0,3.0,95,0.00,,---,0.00,VWS V14.01,2013-01-10 05:39:00,
2013-01-10 00:40:00,69.6,68.1,30.28,NE,43,0.0,3.0,95,0.00,,---,0.00,VWS V14.01,2013-01-10 05:40:00,
2013-01-10 00:41:00,69.6,68.1,30.28,NE,43,1.0,1.0,95,0.00,,---,0.00,VWS V14.01,2013-01-10 05:41:00,
2013-01-10 00:45:00,69.5,68.0,30.28,NE,43,1.0,2.0,95,0.00,,---,0.00,VWS V14.01,2013-01-10 05:45:00,
2013-01-10 00:46:00,69.5,68.0,30.28,NE,43,1.0,2.0,95,0.00,,---,0.00,VWS V14.01,2013-01-10 05:46:00,
2013-01-10 00:48:00,69.5,68.0,30.28,NE,43,2.0,2.0,95,0.00,,---,0.00,VWS V14.01,2013-01-10 05:48:00,
2013-01-10 00:51:00,69.5,68.0,30.28,NNE,17,1.0,3.0,95,0.00,,---,0.00,VWS V14.01,2013-01-10 05:51:00,
2013-01-10 00:52:00,69.5,68.0,30.28,NNE,17,2.0,2.0,95,0.00,,---,0.00,VWS V14.01,2013-01-10 05:52:00,
2013-01-10 00:53:00,69.5,68.0,30.28,NE,46,1.0,3.0,95,0.00,,---,0.00,VWS V14.01,2013-01-10 05:53:00,
2013-01-10 00:56:00,69.5,68.0,30.28,East,82,2.0,2.0,95,0.00,,---,0.00,VWS V14.01,2013-01-10 05:56:00,
2013-01-10 00:57:00,69.5,68.0,30.28,ENE,75,1.0,2.0,95,0.00,,---,0.00,VWS V14.01,2013-01-10 05:57:00,
2013-01-10 00:59:00,69.6,68.4,30.28,ENE,61,1.0,2.0,96,0.00,,---,0.00,VWS V14.01,2013-01-10 05:59:00,
2013-01-10 01:01:00,69.6,68.4,30.28,ENE,61,2.0,2.0,96,0.00,,---,0.00,VWS V14.01,2013-01-10 06:01:00,
2013-01-10 01:02:00,69.6,68.4,30.28,ENE,61,1.0,2.0,96,0.00,,---,0.00,VWS V14.01,2013-01-10 06:02:00,
2013-01-10 01:03:00,69.7,68.5,30.28,ENE,61,2.0,2.0,96,0.00,,---,0.00,VWS V14.01,2013-01-10 06:03:00,
2013-01-10 01:04:00,69.7,68.5,30.28,ENE,60,1.0,3.0,96,0.00,,---,0.00,VWS V14.01,2013-01-10 06:04:00,
2013-01-10 01:06:00,69.7,68.5,30.28,ENE,60,1.0,3.0,96,0.00,,---,0.00,VWS V14.01,2013-01-10 06:06:00,
2013-01-10 01:07:00,69.7,68.5,30.28,ENE,60,1.0,3.0,96,0.00,,---,0.00,VWS V14.01,2013-01-10 06:07:00,
2013-01-10 01:09:00,69.7,68.5,30.28,ENE,60,2.0,3.0,96,0.00,,---,0.00,VWS V14.01,2013-01-10 06:09:00,
2013-01-10 01:11:00,69.8,68.3,30.28,East,87,2.0,3.0,95,0.00,,---,0.00,VWS V14.01,2013-01-10 06:11:00,
2013-01-10 01:12:00,69.8,68.3,30.28,East,87,3.0,3.0,95,0.00,,---,0.00,VWS V14.01,2013-01-10 06:12:00,
2013-01-10 01:14:00,69.8,68.3,30.28,ENE,67,1.0,3.0,95,0.00,,---,0.00,VWS V14.01,2013-01-10 06:14:00,
2013-01-10 01:15:00,69.8,68.6,30.28,ENE,67,1.0,3.0,96,0.00,,---,0.00,VWS V14.01,2013-01-10 06:15:00,
2013-01-10 01:16:00,69.8,68.3,30.28,ENE,67,2.0,2.0,95,0.00,,---,0.00,VWS V14.01,2013-01-10 06:16:00,
2013-01-10 01:17:00,69.8,68.3,30.28,ENE,67,3.0,3.0,95,0.00,,---,0.00,VWS V14.01,2013-01-10 06:17:00,
2013-01-10 01:20:00,69.8,68.6,30.28,ENE,59,1.0,5.0,96,0.00,,---,0.00,VWS V14.01,2013-01-10 06:20:00,
2013-01-10 01:21:00,69.8,68.3,30.28,NE,49,3.0,3.0,95,0.00,,---,0.00,VWS V14.01,2013-01-10 06:21:00,
2013-01-10 01:23:00,69.8,68.6,30.27,ENE,71,2.0,5.0,96,0.00,,---,0.00,VWS V14.01,2013-01-10 06:23:00,
2013-01-10 01:26:00,69.9,68.4,30.28,ENE,69,0.0,2.0,95,0.00,,---,0.00,VWS V14.01,2013-01-10 06:26:00,
2013-01-10 01:27:00,69.9,68.4,30.28,ENE,69,2.0,2.0,95,0.00,,---,0.00,VWS V14.01,2013-01-10 06:27:00,
2013-01-10 01:30:00,69.9,68.4,30.28,ESE,107,1.0,5.0,95,0.00,,---,0.00,VWS V14.01,2013-01-10 06:30:00,
2013-01-10 01:31:00,69.9,68.4,30.28,ESE,107,1.0,2.0,95,0.00,,---,0.00,VWS V14.01,2013-01-10 06:31:00,
2013-01-10 01:32:00,69.9,68.4,30.28,ESE,107,1.0,2.0,95,0.00,,---,0.00,VWS V14.01,2013-01-10 06:32:00,
2013-01-10 01:36:00,69.9,68.4,30.28,NE,56,1.0,3.0,95,0.00,,---,0.00,VWS V14.01,2013-01-10 06:36:00,
2013-01-10 01:37:00,69.9,68.4,30.28,NE,56,2.0,3.0,95,0.00,,---,0.00,VWS V14.01,2013-01-10 06:37:00,
2013-01-10 01:38:00,70.0,68.5,30.28,NE,56,2.0,3.0,95,0.00,,---,0.00,VWS V14.01,2013-01-10 06:38:00,
2013-01-10 01:41:00,69.9,68.4,30.28,NNE,31,2.0,3.0,95,0.00,,---,0.00,VWS V14.01,2013-01-10 06:41:00,
2013-01-10 01:42:00,69.9,68.4,30.28,NNE,32,2.0,3.0,95,0.00,,---,0.00,VWS V14.01,2013-01-10 06:42:00,
2013-01-10 01:43:00,69.9,68.4,30.28,ESE,104,3.0,5.0,95,0.00,,---,0.00,VWS V14.01,2013-01-10 06:43:00,
2013-01-10 01:46:00,70.0,68.5,30.27,ENE,59,2.0,4.0,95,0.00,,---,0.00,VWS V14.01,2013-01-10 06:46:00,
2013-01-10 01:48:00,70.0,68.5,30.27,ENE,59,2.0,4.0,95,0.00,,---,0.00,VWS V14.01,2013-01-10 06:48:00,
2013-01-10 01:51:00,70.0,68.5,30.27,NE,45,1.0,4.0,95,0.00,,---,0.00,VWS V14.01,2013-01-10 06:51:00,
2013-01-10 01:53:00,70.0,68.5,30.27,SE,136,2.0,4.0,95,0.00,,---,0.00,VWS V14.01,2013-01-10 06:53:00,
2013-01-10 01:54:00,70.0,68.5,30.27,ENE,62,3.0,4.0,95,0.00,,---,0.00,VWS V14.01,2013-01-10 06:54:00,
2013-01-10 01:56:00,69.9,68.4,30.27,East,88,2.0,3.0,95,0.00,,---,0.00,VWS V14.01,2013-01-10 06:56:00,
2013-01-10 01:58:00,69.9,68.4,30.27,East,88,2.0,3.0,95,0.00,,---,0.00,VWS V14.01,2013-01-10 06:58:00,
2013-01-10 01:59:00,69.9,68.4,30.27,East,88,3.0,3.0,95,0.00,,---,0.00,VWS V14.01,2013-01-10 06:59:00,
2013-01-10 02:00:00,69.9,68.4,30.27,East,79,2.0,3.0,95,0.00,,---,0.00,VWS V14.01,2013-01-10 07:00:00,
2013-01-10 02:02:00,69.9,68.4,30.27,ENE,70,2.0,3.0,95,0.00,,---,0.00,VWS V14.01,2013-01-10 07:02:00,
2013-01-10 02:03:00,69.8,68.3,30.27,ENE,66,1.0,3.0,95,0.00,,---,0.00,VWS V14.01,2013-01-10 07:03:00,
2013-01-10 02:04:00,69.8,68.3,30.27,ENE,65,2.0,3.0,95,0.00,,---,0.00,VWS V14.01,2013-01-10 07:04:00,
2013-01-10 02:06:00,69.8,68.3,30.27,NE,42,1.0,3.0,95,0.00,,---,0.00,VWS V14.01,2013-01-10 07:06:00,
2013-01-10 02:07:00,69.8,68.3,30.27,NE,53,2.0,5.0,95,0.00,,---,0.00,VWS V14.01,2013-01-10 07:07:00,
2013-01-10 02:09:00,69.8,68.6,30.27,ENE,74,2.0,5.0,96,0.00,,---,0.00,VWS V14.01,2013-01-10 07:09:00,
2013-01-10 02:11:00,69.7,68.2,30.27,ESE,102,3.0,3.0,95,0.00,,---,0.00,VWS V14.01,2013-01-10 07:11:00,
2013-01-10 02:14:00,69.7,68.2,30.27,ENE,69,1.0,3.0,95,0.00,,---,0.00,VWS V14.01,2013-01-10 07:14:00,
2013-01-10 02:15:00,69.7,68.2,30.27,NE,51,3.0,3.0,95,0.00,,---,0.00,VWS V14.01,2013-01-10 07:15:00,
2013-01-10 02:17:00,69.7,68.2,30.27,NE,56,1.0,2.0,95,0.00,,---,0.00,VWS V14.01,2013-01-10 07:17:00,
2013-01-10 02:19:00,69.6,68.4,30.27,NE,55,2.0,4.0,96,0.00,,---,0.00,VWS V14.01,2013-01-10 07:19:00,
2013-01-10 02:20:00,69.7,68.5,30.27,NE,52,2.0,4.0,96,0.00,,---,0.00,VWS V14.01,2013-01-10 07:20:00,
2013-01-10 02:22:00,69.6,68.4,30.26,ENE,71,2.0,5.0,96,0.00,,---,0.00,VWS V14.01,2013-01-10 07:22:00,
2013-01-10 02:25:00,69.6,68.4,30.26,NE,48,3.0,5.0,96,0.00,,---,0.00,VWS V14.01,2013-01-10 07:25:00,
2013-01-10 02:26:00,69.6,68.4,30.26,East,80,2.0,5.0,96,0.00,,---,0.00,VWS V14.01,2013-01-10 07:26:00,
2013-01-10 02:27:00,69.6,68.4,30.26,NE,48,2.0,4.0,96,0.00,,---,0.00,VWS V14.01,2013-01-10 07:27:00,
2013-01-10 02:29:00,69.6,68.4,30.26,NE,36,2.0,4.0,96,0.00,,---,0.00,VWS V14.01,2013-01-10 07:29:00,
2013-01-10 02:31:00,69.6,68.4,30.26,NE,55,2.0,4.0,96,0.00,,---,0.00,VWS V14.01,2013-01-10 07:31:00,
2013-01-10 02:32:00,69.6,68.4,30.26,ENE,61,2.0,4.0,96,0.00,,---,0.00,VWS V14.01,2013-01-10 07:32:00,
2013-01-10 02:33:00,69.6,68.4,30.26,ENE,61,2.0,4.0,96,0.00,,---,0.00,VWS V14.01,2013-01-10 07:33:00,
2013-01-10 02:34:00,69.7,68.5,30.26,ENE,69,2.0,4.0,96,0.00,,---,0.00,VWS V14.01,2013-01-10 07:34:00,
2013-01-10 02:36:00,69.7,68.5,30.26,East,81,1.0,4.0,96,0.00,,---,0.00,VWS V14.01,2013-01-10 07:36:00,
2013-01-10 02:38:00,69.7,68.2,30.26,ENE,62,2.0,5.0,95,0.00,,---,0.00,VWS V14.01,2013-01-10 07:38:00,
2013-01-10 02:39:00,69.7,68.2,30.26,NNE,30,3.0,5.0,95,0.00,,---,0.00,VWS V14.01,2013-01-10 07:39:00,
2013-01-10 02:41:00,69.7,68.2,30.26,ENE,63,2.0,2.0,95,0.00,,---,0.00,VWS V14.01,2013-01-10 07:41:00,
2013-01-10 02:43:00,69.7,68.2,30.26,NE,53,3.0,4.0,95,0.00,,---,0.00,VWS V14.01,2013-01-10 07:43:00,
2013-01-10 02:44:00,69.7,68.2,30.26,NE,53,3.0,4.0,95,0.00,,---,0.00,VWS V14.01,2013-01-10 07:44:00,
2013-01-10 02:46:00,69.8,68.3,30.26,ENE,73,2.0,2.0,95,0.00,,---,0.00,VWS V14.01,2013-01-10 07:46:00,
2013-01-10 02:49:00,69.8,68.3,30.26,ESE,109,0.0,5.0,95,0.00,,---,0.00,VWS V14.01,2013-01-10 07:49:00,
2013-01-10 02:51:00,69.8,68.3,30.26,ENE,62,3.0,3.0,95,0.00,,---,0.00,VWS V14.01,2013-01-10 07:51:00,
2013-01-10 02:54:00,69.8,68.3,30.26,NE,52,2.0,5.0,95,0.00,,---,0.00,VWS V14.01,2013-01-10 07:54:00,
2013-01-10 02:55:00,69.8,68.3,30.26,NE,50,2.0,5.0,95,0.00,,---,0.00,VWS V14.01,2013-01-10 07:55:00,
2013-01-10 02:56:00,69.8,68.3,30.26,East,84,3.0,3.0,95,0.00,,---,0.00,VWS V14.01,2013-01-10 07:56:00,
2013-01-10 03:00:00,69.8,68.3,30.26,ESE,105,3.0,7.0,95,0.00,,---,0.00,VWS V14.01,2013-01-10 08:00:00,
2013-01-10 03:01:00,69.8,68.3,30.26,ENE,65,3.0,3.0,95,0.00,,---,0.00,VWS V14.01,2013-01-10 08:01:00,
2013-01-10 03:06:00,69.8,68.3,30.26,ENE,74,2.0,2.0,95,0.00,,---,0.00,VWS V14.01,2013-01-10 08:06:00,
2013-01-10 03:07:00,69.8,68.3,30.26,East,90,1.0,2.0,95,0.00,,---,0.00,VWS V14.01,2013-01-10 08:07:00,
2013-01-10 03:08:00,69.8,68.3,30.26,ENE,57,2.0,4.0,95,0.00,,---,0.00,VWS V14.01,2013-01-10 08:08:00,
2013-01-10 03:11:00,69.7,68.2,30.26,ENE,57,1.0,2.0,95,0.00,,---,0.00,VWS V14.01,2013-01-10 08:11:00,
2013-01-10 03:12:00,69.7,68.2,30.26,ENE,64,2.0,2.0,95,0.00,,---,0.00,VWS V14.01,2013-01-10 08:12:00,
2013-01-10 03:13:00,69.7,68.2,30.26,ENE,68,2.0,2.0,95,0.00,,---,0.00,VWS V14.01,2013-01-10 08:13:00,
2013-01-10 03:17:00,69.7,68.2,30.26,East,85,2.0,3.0,95,0.00,,---,0.00,VWS V14.01,2013-01-10 08:17:00,
2013-01-10 03:18:00,69.6,68.1,30.26,East,84,0.0,3.0,95,0.00,,---,0.00,VWS V14.01,2013-01-10 08:18:00,
2013-01-10 03:19:00,69.6,68.1,30.26,ENE,63,3.0,6.0,95,0.00,,---,0.00,VWS V14.01,2013-01-10 08:19:00,
2013-01-10 03:22:00,69.6,68.1,30.26,East,93,3.0,3.0,95,0.00,,---,0.00,VWS V14.01,2013-01-10 08:22:00,
2013-01-10 03:23:00,69.6,68.1,30.26,ENE,77,4.0,7.0,95,0.00,,---,0.00,VWS V14.01,2013-01-10 08:23:00,
2013-01-10 03:24:00,69.6,68.1,30.26,ENE,78,1.0,7.0,95,0.00,,---,0.00,VWS V14.01,2013-01-10 08:24:00,
2013-01-10 03:27:00,69.6,68.1,30.26,East,95,1.0,3.0,95,0.00,,---,0.00,VWS V14.01,2013-01-10 08:27:00,
2013-01-10 03:28:00,69.6,68.1,30.26,East,95,1.0,3.0,95,0.00,,---,0.00,VWS V14.01,2013-01-10 08:28:00,
2013-01-10 03:29:00,69.5,68.0,30.26,East,82,1.0,3.0,95,0.00,,---,0.00,VWS V14.01,2013-01-10 08:29:00,
2013-01-10 03:34:00,69.5,68.0,30.26,NE,56,1.0,4.0,95,0.00,,---,0.00,VWS V14.01,2013-01-10 08:34:00,
2013-01-10 03:35:00,69.5,68.0,30.26,ENE,65,2.0,4.0,95,0.00,,---,0.00,VWS V14.01,2013-01-10 08:35:00,
2013-01-10 03:39:00,69.5,68.0,30.26,ENE,78,1.0,4.0,95,0.00,,---,0.00,VWS V14.01,2013-01-10 08:39:00,
2013-01-10 03:40:00,69.5,68.0,30.26,ENE,69,1.0,4.0,95,0.00,,---,0.00,VWS V14.01,2013-01-10 08:40:00,
2013-01-10 03:42:00,69.5,68.0,30.26,ESE,112,2.0,7.0,95,0.00,,---,0.00,VWS V14.01,2013-01-10 08:42:00,
2013-01-10 03:44:00,69.4,67.9,30.25,ENE,73,1.0,7.0,95,0.00,,---,0.00,VWS V14.01,2013-01-10 08:44:00,
2013-01-10 03:46:00,69.5,68.0,30.26,ENE,72,2.0,2.0,95,0.00,,---,0.00,VWS V14.01,2013-01-10 08:46:00,
2013-01-10 03:47:00,69.4,67.9,30.25,ENE,72,2.0,2.0,95,0.00,,---,0.00,VWS V14.01,2013-01-10 08:47:00,
2013-01-10 03:49:00,69.4,67.9,30.26,ENE,74,2.0,2.0,95,0.00,,---,0.00,VWS V14.01,2013-01-10 08:49:00,
2013-01-10 03:51:00,69.4,67.9,30.25,ENE,74,1.0,1.0,95,0.00,,---,0.00,VWS V14.01,2013-01-10 08:51:00,
2013-01-10 03:52:00,69.4,67.9,30.25,East,89,2.0,3.0,95,0.00,,---,0.00,VWS V14.01,2013-01-10 08:52:00,
2013-01-10 03:54:00,69.4,67.9,30.25,East,89,1.0,3.0,95,0.00,,---,0.00,VWS V14.01,2013-01-10 08:54:00,
2013-01-10 03:55:00,69.4,67.9,30.25,East,90,1.0,3.0,95,0.00,,---,0.00,VWS V14.01,2013-01-10 08:55:00,
2013-01-10 03:58:00,69.4,67.9,30.25,ENE,57,1.0,4.0,95,0.00,,---,0.00,VWS V14.01,2013-01-10 08:58:00,
2013-01-10 03:59:00,69.4,67.9,30.25,ENE,76,1.0,5.0,95,0.00,,---,0.00,VWS V14.01,2013-01-10 08:59:00,
2013-01-10 04:00:00,69.4,67.9,30.25,NE,49,2.0,5.0,95,0.00,,---,0.00,VWS V14.01,2013-01-10 09:00:00,
2013-01-10 04:03:00,69.4,67.9,30.25,NE,42,2.0,4.0,95,0.00,,---,0.00,VWS V14.01,2013-01-10 09:03:00,
2013-01-10 04:04:00,69.4,67.9,30.25,NE,53,1.0,4.0,95,0.00,,---,0.00,VWS V14.01,2013-01-10 09:04:00,
2013-01-10 04:06:00,69.4,67.9,30.25,NE,53,1.0,4.0,95,0.00,,---,0.00,VWS V14.01,2013-01-10 09:06:00,
2013-01-10 04:08:00,69.4,67.9,30.25,ENE,63,2.0,3.0,95,0.00,,---,0.00,VWS V14.01,2013-01-10 09:08:00,
2013-01-10 04:10:00,69.4,67.9,30.25,East,80,2.0,3.0,95,0.00,,---,0.00,VWS V14.01,2013-01-10 09:10:00,
2013-01-10 04:12:00,69.4,67.9,30.25,ENE,67,2.0,4.0,95,0.00,,---,0.00,VWS V14.01,2013-01-10 09:12:00,
2013-01-10 04:15:00,69.4,67.9,30.25,East,86,1.0,4.0,95,0.00,,---,0.00,VWS V14.01,2013-01-10 09:15:00,
2013-01-10 04:17:00,69.4,67.9,30.25,ENE,64,1.0,3.0,95,0.00,,---,0.00,VWS V14.01,2013-01-10 09:17:00,
2013-01-10 04:21:00,69.4,67.9,30.25,NE,45,1.0,3.0,95,0.00,,---,0.00,VWS V14.01,2013-01-10 09:21:00,
2013-01-10 04:23:00,69.4,67.9,30.25,NE,52,3.0,4.0,95,0.00,,---,0.00,VWS V14.01,2013-01-10 09:23:00,
2013-01-10 04:26:00,69.4,67.9,30.25,NE,48,0.0,4.0,95,0.00,,---,0.00,VWS V14.01,2013-01-10 09:26:00,
2013-01-10 04:30:00,69.3,67.8,30.25,ENE,61,1.0,3.0,95,0.00,,---,0.00,VWS V14.01,2013-01-10 09:30:00,
2013-01-10 04:31:00,69.3,67.8,30.25,ENE,61,2.0,3.0,95,0.00,,---,0.00,VWS V14.01,2013-01-10 09:31:00,
2013-01-10 04:32:00,69.3,67.8,30.25,ENE,61,2.0,3.0,95,0.00,,---,0.00,VWS V14.01,2013-01-10 09:32:00,
2013-01-10 04:33:00,69.3,68.1,30.25,NNE,26,2.0,3.0,96,0.00,,---,0.00,VWS V14.01,2013-01-10 09:33:00,
2013-01-10 04:36:00,69.3,68.1,30.25,ENE,63,1.0,2.0,96,0.00,,---,0.00,VWS V14.01,2013-01-10 09:36:00,
2013-01-10 04:37:00,69.3,68.1,30.25,ENE,63,1.0,2.0,96,0.00,,---,0.00,VWS V14.01,2013-01-10 09:37:00,
2013-01-10 04:38:00,69.3,68.1,30.25,ENE,63,1.0,2.0,96,0.00,,---,0.00,VWS V14.01,2013-01-10 09:38:00,
2013-01-10 04:42:00,69.2,68.0,30.25,ENE,63,1.0,2.0,96,0.00,,---,0.00,VWS V14.01,2013-01-10 09:42:00,
2013-01-10 04:44:00,69.2,68.0,30.25,ENE,63,2.0,2.0,96,0.00,,---,0.00,VWS V14.01,2013-01-10 09:44:00,
2013-01-10 04:47:00,69.2,68.0,30.25,ENE,63,1.0,2.0,96,0.00,,---,0.00,VWS V14.01,2013-01-10 09:47:00,
2013-01-10 04:49:00,69.1,67.9,30.25,ENE,63,1.0,2.0,96,0.00,,---,0.00,VWS V14.01,2013-01-10 09:49:00,
2013-01-10 04:50:00,69.1,67.9,30.25,ENE,63,0.0,2.0,96,0.00,,---,0.00,VWS V14.01,2013-01-10 09:50:00,
2013-01-10 04:53:00,69.1,67.9,30.26,ENE,63,1.0,2.0,96,0.00,,---,0.00,VWS V14.01,2013-01-10 09:53:00,
2013-01-10 04:54:00,69.0,67.8,30.26,ENE,63,1.0,2.0,96,0.00,,---,0.00,VWS V14.01,2013-01-10 09:54:00,
2013-01-10 04:55:00,69.0,67.8,30.25,ENE,63,2.0,2.0,96,0.00,,---,0.00,VWS V14.01,2013-01-10 09:55:00,
2013-01-10 04:59:00,69.0,67.8,30.26,ENE,63,3.0,3.0,96,0.00,,---,0.00,VWS V14.01,2013-01-10 09:59:00,
2013-01-10 05:00:00,69.0,67.8,30.26,ENE,63,1.0,3.0,96,0.00,,---,0.00,VWS V14.01,2013-01-10 10:00:00,
2013-01-10 05:01:00,68.9,67.7,30.25,ENE,63,2.0,2.0,96,0.00,,---,0.00,VWS V14.01,2013-01-10 10:01:00,
2013-01-10 05:06:00,68.9,67.7,30.26,ENE,63,0.0,1.0,96,0.00,,---,0.00,VWS V14.01,2013-01-10 10:06:00,
2013-01-10 05:07:00,68.8,67.6,30.26,ENE,63,1.0,1.0,96,0.00,,---,0.00,VWS V14.01,2013-01-10 10:07:00,
2013-01-10 05:12:00,68.8,67.6,30.26,ENE,63,0.0,1.0,96,0.00,,---,0.00,VWS V14.01,2013-01-10 10:12:00,
2013-01-10 05:13:00,68.7,67.5,30.26,ENE,63,1.0,2.0,96,0.00,,---,0.00,VWS V14.01,2013-01-10 10:13:00,
2013-01-10 05:17:00,68.7,67.5,30.26,ENE,63,1.0,1.0,96,0.00,,---,0.00,VWS V14.01,2013-01-10 10:17:00,
2013-01-10 05:18:00,68.7,67.5,30.26,ENE,63,0.0,1.0,96,0.00,,---,0.00,VWS V14.01,2013-01-10 10:18:00,
2013-01-10 05:20:00,68.7,67.5,30.26,ENE,63,2.0,2.0,96,0.00,,---,0.00,VWS V14.01,2013-01-10 10:20:00,
2013-01-10 05:23:00,68.6,67.4,30.26,ENE,63,0.0,2.0,96,0.00,,---,0.00,VWS V14.01,2013-01-10 10:23:00,
2013-01-10 05:24:00,68.6,67.4,30.26,ENE,63,1.0,2.0,96,0.00,,---,0.00,VWS V14.01,2013-01-10 10:24:00,
2013-01-10 05:27:00,68.6,67.4,30.26,East,85,1.0,1.0,96,0.00,,---,0.00,VWS V14.01,2013-01-10 10:27:00,
2013-01-10 05:28:00,68.6,67.4,30.26,ENE,73,1.0,3.0,96,0.00,,---,0.00,VWS V14.01,2013-01-10 10:28:00,
2013-01-10 05:30:00,68.5,67.3,30.26,ENE,73,1.0,3.0,96,0.00,,---,0.00,VWS V14.01,2013-01-10 10:30:00,
2013-01-10 05:32:00,68.5,67.3,30.26,ENE,73,1.0,1.0,96,0.00,,---,0.00,VWS V14.01,2013-01-10 10:32:00,
2013-01-10 05:34:00,68.5,67.6,30.26,East,85,1.0,2.0,97,0.00,,---,0.00,VWS V14.01,2013-01-10 10:34:00,
2013-01-10 05:37:00,68.5,67.6,30.26,East,85,0.0,1.0,97,0.00,,---,0.00,VWS V14.01,2013-01-10 10:37:00,
2013-01-10 05:38:00,68.4,67.5,30.26,East,85,0.0,1.0,97,0.00,,---,0.00,VWS V14.01,2013-01-10 10:38:00,
2013-01-10 05:40:00,68.4,67.5,30.26,East,85,1.0,1.0,97,0.00,,---,0.00,VWS V14.01,2013-01-10 10:40:00,
2013-01-10 05:43:00,68.4,67.5,30.26,East,85,0.0,1.0,97,0.00,,---,0.00,VWS V14.01,2013-01-10 10:43:00,
2013-01-10 05:44:00,68.4,67.5,30.26,East,85,0.0,1.0,97,0.00,,---,0.00,VWS V14.01,2013-01-10 10:44:00,
2013-01-10 05:46:00,68.4,67.5,30.26,East,85,0.0,0.0,97,0.00,,---,0.00,VWS V14.01,2013-01-10 10:46:00,
2013-01-10 05:48:00,68.3,67.4,30.26,East,85,0.0,1.0,97,0.00,,---,0.00,VWS V14.01,2013-01-10 10:48:00,
2013-01-10 05:49:00,68.3,67.4,30.26,East,85,0.0,1.0,97,0.00,,---,0.00,VWS V14.01,2013-01-10 10:49:00,
2013-01-10 05:50:00,68.3,67.4,30.26,East,85,0.0,1.0,97,0.00,,---,0.00,VWS V14.01,2013-01-10 10:50:00,
2013-01-10 05:51:00,68.3,67.1,30.26,East,85,0.0,0.0,96,0.00,,---,0.00,VWS V14.01,2013-01-10 10:51:00,
2013-01-10 05:54:00,68.2,67.0,30.26,East,85,1.0,1.0,96,0.00,,---,0.00,VWS V14.01,2013-01-10 10:54:00,
2013-01-10 05:56:00,68.2,67.0,30.26,East,85,0.0,0.0,96,0.00,,---,0.00,VWS V14.01,2013-01-10 10:56:00,
2013-01-10 05:58:00,68.2,67.3,30.26,East,85,0.0,0.0,97,0.00,,---,0.00,VWS V14.01,2013-01-10 10:58:00,
2013-01-10 06:00:00,68.2,67.3,30.26,East,85,0.0,0.0,97,0.00,,---,0.00,VWS V14.01,2013-01-10 11:00:00,
2013-01-10 06:01:00,68.1,67.2,30.26,East,85,0.0,0.0,97,0.00,,---,0.00,VWS V14.01,2013-01-10 11:01:00,
2013-01-10 06:03:00,68.1,67.2,30.26,East,85,0.0,0.0,97,0.00,,---,0.00,VWS V14.01,2013-01-10 11:03:00,
2013-01-10 06:05:00,68.1,67.2,30.26,East,85,0.0,0.0,97,0.00,,---,0.00,VWS V14.01,2013-01-10 11:05:00,
2013-01-10 06:06:00,68.1,67.2,30.26,East,85,0.0,0.0,97,0.00,,---,0.00,VWS V14.01,2013-01-10 11:06:00,
2013-01-10 06:07:00,68.0,67.1,30.26,East,85,0.0,0.0,97,0.00,,---,0.00,VWS V14.01,2013-01-10 11:07:00,
2013-01-10 06:10:00,68.0,67.1,30.26,East,85,0.0,1.0,97,0.00,,---,0.00,VWS V14.01,2013-01-10 11:10:00,
2013-01-10 06:11:00,68.0,67.1,30.26,East,85,0.0,1.0,97,0.00,,---,0.00,VWS V14.01,2013-01-10 11:11:00,
2013-01-10 06:12:00,68.0,67.1,30.26,East,85,0.0,0.0,97,0.00,,---,0.00,VWS V14.01,2013-01-10 11:12:00,
2013-01-10 06:15:00,67.9,67.0,30.26,East,85,1.0,1.0,97,0.00,,---,0.00,VWS V14.01,2013-01-10 11:15:00,
2013-01-10 06:17:00,67.9,67.0,30.26,East,85,1.0,1.0,97,0.00,,---,0.00,VWS V14.01,2013-01-10 11:17:00,
2013-01-10 06:18:00,67.9,67.0,30.26,East,85,1.0,1.0,97,0.00,,---,0.00,VWS V14.01,2013-01-10 11:18:00,
2013-01-10 06:21:00,67.9,67.0,30.26,East,85,0.0,1.0,97,0.00,,---,0.00,VWS V14.01,2013-01-10 11:21:00,
2013-01-10 06:22:00,67.9,67.0,30.26,East,85,0.0,1.0,97,0.00,,---,0.00,VWS V14.01,2013-01-10 11:22:00,
2013-01-10 06:23:00,67.9,67.0,30.26,East,85,0.0,1.0,97,0.00,,---,0.00,VWS V14.01,2013-01-10 11:23:00,
2013-01-10 06:24:00,67.9,67.0,30.26,East,85,0.0,1.0,97,0.00,,---,0.00,VWS V14.01,2013-01-10 11:24:00,
2013-01-10 06:26:00,67.9,67.0,30.26,East,85,1.0,1.0,97,0.00,,---,0.00,VWS V14.01,2013-01-10 11:26:00,
2013-01-10 06:28:00,67.9,67.0,30.26,East,85,0.0,1.0,97,0.00,,---,0.00,VWS V14.01,2013-01-10 11:28:00,
2013-01-10 06:29:00,67.9,67.0,30.26,East,85,1.0,1.0,97,0.00,,---,0.00,VWS V14.01,2013-01-10 11:29:00,
2013-01-10 06:33:00,67.9,67.0,30.26,East,85,0.0,1.0,97,0.00,,---,0.00,VWS V14.01,2013-01-10 11:33:00,
2013-01-10 06:35:00,67.9,67.0,30.26,East,85,0.0,1.0,97,0.00,,---,0.00,VWS V14.01,2013-01-10 11:35:00,
2013-01-10 06:36:00,67.9,67.0,30.26,East,85,1.0,1.0,97,0.00,,---,0.00,VWS V14.01,2013-01-10 11:36:00,
2013-01-10 06:38:00,67.9,67.0,30.26,East,85,0.0,1.0,97,0.00,,---,0.00,VWS V14.01,2013-01-10 11:38:00,
2013-01-10 06:41:00,67.9,67.0,30.26,East,85,1.0,1.0,97,0.00,,---,0.00,VWS V14.01,2013-01-10 11:41:00,
2013-01-10 06:42:00,67.9,67.0,30.26,East,85,0.0,1.0,97,0.00,,---,0.00,VWS V14.01,2013-01-10 11:42:00,
2013-01-10 06:43:00,67.9,67.0,30.26,East,85,1.0,1.0,97,0.00,,---,0.00,VWS V14.01,2013-01-10 11:43:00,
2013-01-10 06:44:00,67.8,66.9,30.26,East,85,1.0,1.0,97,0.00,,---,0.00,VWS V14.01,2013-01-10 11:44:00,
2013-01-10 06:47:00,67.8,67.2,30.26,East,85,0.0,1.0,98,0.00,,---,0.00,VWS V14.01,2013-01-10 11:47:00,
2013-01-10 06:48:00,67.9,67.3,30.27,East,85,1.0,1.0,98,0.00,,---,0.00,VWS V14.01,2013-01-10 11:48:00,
2013-01-10 06:49:00,67.9,67.3,30.27,East,85,1.0,1.0,98,0.00,,---,0.00,VWS V14.01,2013-01-10 11:49:00,
2013-01-10 06:52:00,67.8,66.9,30.27,East,85,1.0,1.0,97,0.00,,---,0.00,VWS V14.01,2013-01-10 11:52:00,
2013-01-10 06:54:00,67.8,67.2,30.27,East,85,0.0,1.0,98,0.00,,---,0.00,VWS V14.01,2013-01-10 11:54:00,
2013-01-10 06:55:00,67.8,67.2,30.27,East,85,0.0,1.0,98,0.00,,---,0.00,VWS V14.01,2013-01-10 11:55:00,
2013-01-10 06:57:00,67.8,67.2,30.27,East,85,1.0,1.0,98,0.00,,---,0.00,VWS V14.01,2013-01-10 11:57:00,
2013-01-10 07:00:00,67.8,66.9,30.27,East,85,1.0,1.0,97,0.00,,---,0.00,VWS V14.01,2013-01-10 12:00:00,
2013-01-10 07:03:00,67.8,67.2,30.27,East,85,1.0,1.0,98,0.00,,---,0.00,VWS V14.01,2013-01-10 12:03:00,
2013-01-10 07:04:00,67.7,66.8,30.28,East,85,1.0,1.0,97,0.00,,---,0.00,VWS V14.01,2013-01-10 12:04:00,
2013-01-10 07:05:00,67.7,66.8,30.28,East,85,3.0,3.0,97,0.01,,---,0.01,VWS V14.01,2013-01-10 12:05:00,
2013-01-10 07:08:00,67.8,67.2,30.27,East,85,1.0,2.0,98,0.01,,---,0.01,VWS V14.01,2013-01-10 12:08:00,
2013-01-10 07:10:00,67.8,67.2,30.27,East,85,1.0,2.0,98,0.01,,---,0.01,VWS V14.01,2013-01-10 12:10:00,
2013-01-10 07:11:00,67.8,67.2,30.27,East,85,1.0,2.0,98,0.01,,---,0.01,VWS V14.01,2013-01-10 12:11:00,
2013-01-10 07:13:00,67.8,67.2,30.28,East,85,1.0,2.0,98,0.01,,---,0.01,VWS V14.01,2013-01-10 12:13:00,
2013-01-10 07:16:00,67.8,67.2,30.28,East,85,1.0,2.0,98,0.01,,---,0.01,VWS V14.01,2013-01-10 12:16:00,
2013-01-10 07:17:00,67.8,67.2,30.28,East,85,1.0,1.0,98,0.01,,---,0.01,VWS V14.01,2013-01-10 12:17:00,
2013-01-10 07:18:00,67.8,67.2,30.28,East,85,1.0,2.0,98,0.01,,---,0.01,VWS V14.01,2013-01-10 12:18:00,
2013-01-10 07:19:00,67.8,67.2,30.28,East,84,3.0,3.0,98,0.01,,---,0.01,VWS V14.01,2013-01-10 12:19:00,
2013-01-10 07:22:00,67.9,67.3,30.28,East,84,1.0,2.0,98,0.01,,---,0.01,VWS V14.01,2013-01-10 12:22:00,
2013-01-10 07:23:00,67.9,67.3,30.28,East,84,1.0,3.0,98,0.01,,---,0.01,VWS V14.01,2013-01-10 12:23:00,
2013-01-10 07:26:00,67.9,67.3,30.28,East,84,2.0,3.0,98,0.01,,---,0.01,VWS V14.01,2013-01-10 12:26:00,
2013-01-10 07:27:00,67.9,67.3,30.28,ENE,74,0.0,3.0,98,0.01,,---,0.01,VWS V14.01,2013-01-10 12:27:00,
2013-01-10 07:28:00,67.9,67.3,30.28,ENE,74,1.0,3.0,98,0.01,,---,0.01,VWS V14.01,2013-01-10 12:28:00,
2013-01-10 07:29:00,67.9,67.3,30.28,ENE,74,1.0,3.0,98,0.01,,---,0.01,VWS V14.01,2013-01-10 12:29:00,
2013-01-10 07:31:00,67.9,67.3,30.28,ENE,68,2.0,3.0,98,0.01,,---,0.01,VWS V14.01,2013-01-10 12:31:00,
2013-01-10 07:33:00,68.0,67.4,30.28,NE,49,2.0,3.0,98,0.01,,---,0.01,VWS V14.01,2013-01-10 12:33:00,
2013-01-10 07:34:00,68.0,67.4,30.28,NE,49,1.0,3.0,98,0.01,,---,0.01,VWS V14.01,2013-01-10 12:34:00,
2013-01-10 07:36:00,68.0,67.4,30.28,NE,49,1.0,1.0,98,0.01,,---,0.01,VWS V14.01,2013-01-10 12:36:00,
2013-01-10 07:39:00,68.0,67.4,30.28,NE,49,0.0,2.0,98,0.01,,---,0.01,VWS V14.01,2013-01-10 12:39:00,
2013-01-10 07:41:00,68.0,67.4,30.28,NE,49,1.0,1.0,98,0.01,,---,0.01,VWS V14.01,2013-01-10 12:41:00,
2013-01-10 07:44:00,68.0,67.4,30.28,East,101,1.0,2.0,98,0.01,,---,0.01,VWS V14.01,2013-01-10 12:44:00,
2013-01-10 07:45:00,68.0,67.4,30.28,East,101,1.0,2.0,98,0.01,,---,0.01,VWS V14.01,2013-01-10 12:45:00,
2013-01-10 07:46:00,68.1,67.5,30.28,East,91,0.0,2.0,98,0.01,,---,0.01,VWS V14.01,2013-01-10 12:46:00,
2013-01-10 07:47:00,68.0,67.4,30.28,East,91,1.0,2.0,98,0.01,,---,0.01,VWS V14.01,2013-01-10 12:47:00,
2013-01-10 07:50:00,68.1,67.5,30.28,East,91,1.0,2.0,98,0.01,,---,0.01,VWS V14.01,2013-01-10 12:50:00,
2013-01-10 07:52:00,68.1,67.5,30.28,East,91,0.0,2.0,98,0.01,,---,0.01,VWS V14.01,2013-01-10 12:52:00,
2013-01-10 07:55:00,68.1,67.5,30.28,East,90,2.0,3.0,98,0.01,,---,0.01,VWS V14.01,2013-01-10 12:55:00,
2013-01-10 07:56:00,68.1,67.5,30.28,East,90,1.0,1.0,98,0.01,,---,0.01,VWS V14.01,2013-01-10 12:56:00,
2013-01-10 07:58:00,68.1,67.5,30.28,ENE,65,1.0,3.0,98,0.01,,---,0.01,VWS V14.01,2013-01-10 12:58:00,
2013-01-10 07:59:00,68.1,67.5,30.28,ESE,106,2.0,3.0,98,0.01,,---,0.01,VWS V14.01,2013-01-10 12:59:00,
2013-01-10 08:00:00,68.1,67.5,30.28,East,92,1.0,3.0,98,0.01,,---,0.01,VWS V14.01,2013-01-10 13:00:00,
2013-01-10 08:02:00,68.1,67.5,30.28,East,92,1.0,2.0,98,0.01,,---,0.01,VWS V14.01,2013-01-10 13:02:00,
2013-01-10 08:03:00,68.2,67.3,30.28,East,92,1.0,3.0,97,0.01,,---,0.01,VWS V14.01,2013-01-10 13:03:00,
2013-01-10 08:05:00,68.2,67.3,30.28,East,92,1.0,3.0,97,0.01,,---,0.01,VWS V14.01,2013-01-10 13:05:00,
2013-01-10 08:06:00,68.2,67.3,30.28,East,92,3.0,3.0,97,0.00,,---,0.01,VWS V14.01,2013-01-10 13:06:00,
2013-01-10 08:08:00,68.2,67.3,30.28,East,91,1.0,3.0,97,0.00,,---,0.01,VWS V14.01,2013-01-10 13:08:00,
2013-01-10 08:09:00,68.2,67.3,30.28,East,91,2.0,3.0,97,0.00,,---,0.01,VWS V14.01,2013-01-10 13:09:00,
2013-01-10 08:11:00,68.2,67.3,30.28,East,92,1.0,3.0,97,0.00,,---,0.01,VWS V14.01,2013-01-10 13:11:00,
2013-01-10 08:12:00,68.2,67.3,30.28,East,92,1.0,2.0,97,0.00,,---,0.01,VWS V14.01,2013-01-10 13:12:00,
2013-01-10 08:14:00,68.2,67.3,30.28,ENE,57,2.0,3.0,97,0.00,,---,0.01,VWS V14.01,2013-01-10 13:14:00,
2013-01-10 08:16:00,68.3,67.4,30.28,ENE,57,2.0,3.0,97,0.00,,---,0.01,VWS V14.01,2013-01-10 13:16:00,
2013-01-10 08:17:00,68.3,67.4,30.28,ENE,74,2.0,3.0,97,0.00,,---,0.01,VWS V14.01,2013-01-10 13:17:00,
2013-01-10 08:20:00,68.3,67.4,30.28,East,83,2.0,3.0,97,0.00,,---,0.01,VWS V14.01,2013-01-10 13:20:00,
2013-01-10 08:21:00,68.3,67.4,30.28,ENE,57,3.0,4.0,97,0.00,,---,0.01,VWS V14.01,2013-01-10 13:21:00,
2013-01-10 08:23:00,68.4,67.5,30.28,NE,42,4.0,4.0,97,0.00,,---,0.01,VWS V14.01,2013-01-10 13:23:00,
2013-01-10 08:26:00,68.5,67.6,30.28,North,355,2.0,4.0,97,0.00,,---,0.01,VWS V14.01,2013-01-10 13:26:00,
2013-01-10 08:27:00,68.5,67.6,30.28,NNE,20,2.0,3.0,97,0.00,,---,0.01,VWS V14.01,2013-01-10 13:27:00,
2013-01-10 08:28:00,68.5,67.6,30.28,ENE,78,1.0,4.0,97,0.00,,---,0.01,VWS V14.01,2013-01-10 13:28:00,
2013-01-10 08:32:00,68.6,67.7,30.28,ENE,71,1.0,3.0,97,0.00,,---,0.01,VWS V14.01,2013-01-10 13:32:00,
2013-01-10 08:33:00,68.6,67.7,30.28,NE,42,1.0,3.0,97,0.00,,---,0.01,VWS V14.01,2013-01-10 13:33:00,
2013-01-10 08:34:00,68.6,67.7,30.28,NE,42,2.0,3.0,97,0.00,,---,0.01,VWS V14.01,2013-01-10 13:34:00,
2013-01-10 08:37:00,68.7,67.8,30.28,East,89,0.0,2.0,97,0.00,,---,0.01,VWS V14.01,2013-01-10 13:37:00,
2013-01-10 08:39:00,68.8,67.9,30.28,ENE,61,2.0,3.0,97,0.00,,---,0.01,VWS V14.01,2013-01-10 13:39:00,
2013-01-10 08:40:00,68.8,67.9,30.28,NE,47,2.0,4.0,97,0.00,,---,0.01,VWS V14.01,2013-01-10 13:40:00,
2013-01-10 08:43:00,68.8,67.9,30.28,NE,47,1.0,5.0,97,0.00,,---,0.01,VWS V14.01,2013-01-10 13:43:00,
2013-01-10 08:44:00,68.8,67.9,30.28,ENE,67,3.0,5.0,97,0.00,,---,0.01,VWS V14.01,2013-01-10 13:44:00,
2013-01-10 08:46:00,68.9,68.0,30.28,NE,50,1.0,5.0,97,0.00,,---,0.01,VWS V14.01,2013-01-10 13:46:00,
2013-01-10 08:48:00,69.0,68.1,30.28,East,79,1.0,3.0,97,0.00,,---,0.01,VWS V14.01,2013-01-10 13:48:00,
2013-01-10 08:51:00,69.1,67.9,30.28,East,79,2.0,2.0,96,0.00,,---,0.01,VWS V14.01,2013-01-10 13:51:00,
2013-01-10 08:53:00,69.1,67.9,30.28,East,79,2.0,2.0,96,0.00,,---,0.01,VWS V14.01,2013-01-10 13:53:00,
2013-01-10 08:56:00,69.2,68.0,30.28,East,90,1.0,3.0,96,0.00,,---,0.01,VWS V14.01,2013-01-10 13:56:00,
2013-01-10 08:57:00,69.2,68.0,30.28,ENE,71,2.0,3.0,96,0.00,,---,0.01,VWS V14.01,2013-01-10 13:57:00,
2013-01-10 08:58:00,69.2,68.0,30.28,ENE,57,3.0,3.0,96,0.00,,---,0.01,VWS V14.01,2013-01-10 13:58:00,
2013-01-10 09:02:00,69.3,68.1,30.28,NE,55,2.0,4.0,96,0.00,,---,0.01,VWS V14.01,2013-01-10 14:02:00,
2013-01-10 09:03:00,69.3,68.1,30.28,NE,38,4.0,4.0,96,0.00,,---,0.01,VWS V14.01,2013-01-10 14:03:00,
2013-01-10 09:07:00,69.5,68.3,30.28,ENE,77,2.0,3.0,96,0.00,,---,0.01,VWS V14.01,2013-01-10 14:07:00,
2013-01-10 09:08:00,69.5,68.3,30.28,ENE,59,2.0,4.0,96,0.00,,---,0.01,VWS V14.01,2013-01-10 14:08:00,
2013-01-10 09:09:00,69.5,68.3,30.28,ENE,57,2.0,4.0,96,0.00,,---,0.01,VWS V14.01,2013-01-10 14:09:00,
2013-01-10 09:10:00,69.6,68.1,30.28,NE,44,2.0,4.0,95,0.00,,---,0.01,VWS V14.01,2013-01-10 14:10:00,
2013-01-10 09:12:00,69.8,68.3,30.28,ESE,107,1.0,3.0,95,0.00,,---,0.01,VWS V14.01,2013-01-10 14:12:00,
2013-01-10 09:13:00,69.8,68.3,30.29,ENE,71,3.0,3.0,95,0.00,,---,0.01,VWS V14.01,2013-01-10 14:13:00,
2013-01-10 09:14:00,69.9,68.4,30.29,ENE,70,2.0,3.0,95,0.00,,---,0.01,VWS V14.01,2013-01-10 14:14:00,
2013-01-10 09:16:00,70.0,68.5,30.28,NNE,24,3.0,3.0,95,0.00,,---,0.01,VWS V14.01,2013-01-10 14:16:00,
2013-01-10 09:17:00,70.0,68.5,30.28,ENE,67,2.0,3.0,95,0.00,,---,0.01,VWS V14.01,2013-01-10 14:17:00,
2013-01-10 09:19:00,70.1,68.6,30.28,East,92,1.0,5.0,95,0.00,,---,0.01,VWS V14.01,2013-01-10 14:19:00,
2013-01-10 09:21:00,70.2,68.7,30.28,ENE,76,2.0,2.0,95,0.00,,---,0.01,VWS V14.01,2013-01-10 14:21:00,
2013-01-10 09:22:00,70.2,68.4,30.28,NNE,30,3.0,3.0,94,0.00,,---,0.01,VWS V14.01,2013-01-10 14:22:00,
2013-01-10 09:25:00,70.3,68.5,30.28,NE,47,3.0,5.0,94,0.00,,---,0.01,VWS V14.01,2013-01-10 14:25:00,
2013-01-10 09:26:00,70.4,68.6,30.28,ENE,69,2.0,3.0,94,0.00,,---,0.01,VWS V14.01,2013-01-10 14:26:00,
2013-01-10 09:28:00,70.4,68.6,30.28,East,100,1.0,3.0,94,0.00,,---,0.01,VWS V14.01,2013-01-10 14:28:00,
2013-01-10 09:30:00,70.5,68.7,30.28,ENE,71,2.0,4.0,94,0.00,,---,0.01,VWS V14.01,2013-01-10 14:30:00,
2013-01-10 09:32:00,70.6,68.8,30.28,NE,43,2.0,3.0,94,0.00,,---,0.01,VWS V14.01,2013-01-10 14:32:00,
2013-01-10 09:33:00,70.7,68.9,30.28,NE,49,2.0,3.0,94,0.00,,---,0.01,VWS V14.01,2013-01-10 14:33:00,
2013-01-10 09:34:00,70.7,68.6,30.28,NE,49,2.0,3.0,93,0.00,,---,0.01,VWS V14.01,2013-01-10 14:34:00,
2013-01-10 09:35:00,70.8,69.0,30.28,NE,49,2.0,3.0,94,0.00,,---,0.01,VWS V14.01,2013-01-10 14:35:00,
2013-01-10 09:37:00,70.9,68.8,30.28,ENE,68,2.0,5.0,93,0.00,,---,0.01,VWS V14.01,2013-01-10 14:37:00,
2013-01-10 09:39:00,71.0,68.9,30.28,NE,51,1.0,5.0,93,0.00,,---,0.01,VWS V14.01,2013-01-10 14:39:00,
2013-01-10 09:40:00,71.0,68.9,30.28,NE,51,1.0,5.0,93,0.00,,---,0.01,VWS V14.01,2013-01-10 14:40:00,
2013-01-10 09:41:00,71.0,68.9,30.28,NE,46,3.0,5.0,93,0.00,,---,0.01,VWS V14.01,2013-01-10 14:41:00,
2013-01-10 09:42:00,71.1,69.0,30.28,NE,56,3.0,5.0,93,0.00,,---,0.01,VWS V14.01,2013-01-10 14:42:00,
2013-01-10 09:45:00,71.2,69.1,30.28,NE,48,3.0,5.0,93,0.00,,---,0.01,VWS V14.01,2013-01-10 14:45:00,
2013-01-10 09:48:00,71.3,68.9,30.28,ENE,64,3.0,5.0,92,0.00,,---,0.01,VWS V14.01,2013-01-10 14:48:00,
2013-01-10 09:49:00,71.4,69.0,30.28,NE,55,3.0,6.0,92,0.00,,---,0.01,VWS V14.01,2013-01-10 14:49:00,
2013-01-10 09:50:00,71.4,69.0,30.28,NE,55,3.0,6.0,92,0.00,,---,0.01,VWS V14.01,2013-01-10 14:50:00,
2013-01-10 09:51:00,71.5,69.1,30.27,NE,47,2.0,3.0,92,0.00,,---,0.01,VWS V14.01,2013-01-10 14:51:00,
2013-01-10 09:53:00,71.5,68.7,30.28,NE,39,2.0,5.0,91,0.00,,---,0.01,VWS V14.01,2013-01-10 14:53:00,
2013-01-10 09:55:00,71.7,68.9,30.27,NE,44,4.0,6.0,91,0.00,,---,0.01,VWS V14.01,2013-01-10 14:55:00,
2013-01-10 09:56:00,71.7,68.9,30.27,NE,50,3.0,6.0,91,0.00,,---,0.01,VWS V14.01,2013-01-10 14:56:00,
2013-01-10 09:57:00,71.8,69.0,30.27,NE,49,3.0,6.0,91,0.00,,---,0.01,VWS V14.01,2013-01-10 14:57:00,
2013-01-10 09:58:00,71.9,69.1,30.27,East,92,3.0,6.0,91,0.00,,---,0.01,VWS V14.01,2013-01-10 14:58:00,
2013-01-10 10:01:00,72.0,69.2,30.27,ENE,69,2.0,6.0,91,0.00,,---,0.01,VWS V14.01,2013-01-10 15:01:00,
2013-01-10 10:03:00,72.1,69.3,30.27,NE,54,4.0,6.0,91,0.00,,---,0.01,VWS V14.01,2013-01-10 15:03:00,
2013-01-10 10:05:00,72.2,69.1,30.27,NE,34,3.0,6.0,90,0.00,,---,0.01,VWS V14.01,2013-01-10 15:05:00,
2013-01-10 10:06:00,72.3,69.2,30.26,ENE,71,2.0,3.0,90,0.00,,---,0.01,VWS V14.01,2013-01-10 15:06:00,
2013-01-10 10:07:00,72.4,69.3,30.26,NE,43,2.0,8.0,90,0.00,,---,0.01,VWS V14.01,2013-01-10 15:07:00,
2013-01-10 10:08:00,72.5,69.4,30.26,ENE,76,2.0,8.0,90,0.00,,---,0.01,VWS V14.01,2013-01-10 15:08:00,
2013-01-10 10:10:00,72.6,69.5,30.26,ENE,74,2.0,8.0,90,0.00,,---,0.01,VWS V14.01,2013-01-10 15:10:00,
2013-01-10 10:11:00,72.7,69.6,30.26,ESE,119,3.0,4.0,90,0.00,,---,0.01,VWS V14.01,2013-01-10 15:11:00,
2013-01-10 10:12:00,72.8,69.4,30.26,ENE,62,3.0,5.0,89,0.00,,---,0.01,VWS V14.01,2013-01-10 15:12:00,
2013-01-10 10:14:00,72.9,69.5,30.26,ENE,66,2.0,5.0,89,0.00,,---,0.01,VWS V14.01,2013-01-10 15:14:00,
2013-01-10 10:15:00,73.0,69.6,30.26,ENE,67,1.0,5.0,89,0.00,,---,0.01,VWS V14.01,2013-01-10 15:15:00,
2013-01-10 10:17:00,73.2,69.8,30.26,ENE,67,2.0,3.0,89,0.00,,---,0.01,VWS V14.01,2013-01-10 15:17:00,
2013-01-10 10:18:00,73.2,69.8,30.26,ENE,60,2.0,3.0,89,0.00,,---,0.01,VWS V14.01,2013-01-10 15:18:00,
2013-01-10 10:19:00,73.3,69.9,30.26,NNE,19,3.0,3.0,89,0.00,,---,0.01,VWS V14.01,2013-01-10 15:19:00,
2013-01-10 10:22:00,73.4,69.6,30.26,East,92,2.0,7.0,88,0.00,,---,0.01,VWS V14.01,2013-01-10 15:22:00,
2013-01-10 10:23:00,73.5,69.7,30.26,NE,46,3.0,7.0,88,0.00,,---,0.01,VWS V14.01,2013-01-10 15:23:00,
2013-01-10 10:25:00,73.5,69.4,30.26,NE,54,5.0,7.0,87,0.00,,---,0.01,VWS V14.01,2013-01-10 15:25:00,
2013-01-10 10:26:00,73.5,69.4,30.26,ESE,119,4.0,7.0,87,0.00,,---,0.01,VWS V14.01,2013-01-10 15:26:00,
2013-01-10 10:27:00,73.6,69.5,30.26,East,88,2.0,7.0,87,0.00,,---,0.01,VWS V14.01,2013-01-10 15:27:00,
2013-01-10 10:28:00,73.6,69.5,30.26,East,88,2.0,7.0,87,0.00,,---,0.01,VWS V14.01,2013-01-10 15:28:00,
2013-01-10 10:31:00,73.8,70.0,30.26,NE,44,2.0,7.0,88,0.00,,---,0.01,VWS V14.01,2013-01-10 15:31:00,
2013-01-10 10:33:00,74.0,70.2,30.25,ENE,66,2.0,3.0,88,0.00,,---,0.01,VWS V14.01,2013-01-10 15:33:00,
2013-01-10 10:36:00,74.3,69.8,30.25,NE,49,2.0,3.0,86,0.00,,---,0.01,VWS V14.01,2013-01-10 15:36:00,
2013-01-10 10:37:00,74.3,69.8,30.25,NE,42,3.0,3.0,86,0.00,,---,0.01,VWS V14.01,2013-01-10 15:37:00,
2013-01-10 10:39:00,74.4,69.9,30.25,East,91,2.0,4.0,86,0.00,,---,0.01,VWS V14.01,2013-01-10 15:39:00,
2013-01-10 10:41:00,74.5,69.7,30.25,ENE,67,1.0,2.0,85,0.00,,---,0.01,VWS V14.01,2013-01-10 15:41:00,
2013-01-10 10:44:00,74.5,69.3,30.25,ESE,103,2.0,8.0,84,0.00,,---,0.01,VWS V14.01,2013-01-10 15:44:00,
2013-01-10 10:45:00,74.5,69.7,30.25,NE,34,4.0,8.0,85,0.00,,---,0.01,VWS V14.01,2013-01-10 15:45:00,
2013-01-10 10:48:00,74.6,69.4,30.25,ESE,106,4.0,6.0,84,0.00,,---,0.01,VWS V14.01,2013-01-10 15:48:00,
2013-01-10 10:49:00,74.6,69.8,30.25,NE,40,2.0,6.0,85,0.00,,---,0.01,VWS V14.01,2013-01-10 15:49:00,
2013-01-10 10:50:00,74.6,69.8,30.25,NE,40,3.0,6.0,85,0.00,,---,0.01,VWS V14.01,2013-01-10 15:50:00,
2013-01-10 10:51:00,74.7,69.6,30.24,ENE,61,1.0,3.0,84,0.00,,---,0.01,VWS V14.01,2013-01-10 15:51:00,
2013-01-10 10:53:00,74.8,69.7,30.24,East,96,1.0,7.0,84,0.00,,---,0.01,VWS V14.01,2013-01-10 15:53:00,
2013-01-10 10:55:00,74.9,69.7,30.24,NE,49,2.0,7.0,84,0.00,,---,0.01,VWS V14.01,2013-01-10 15:55:00,
2013-01-10 10:57:00,75.1,69.6,30.24,ENE,72,2.0,8.0,83,0.00,,---,0.01,VWS V14.01,2013-01-10 15:57:00,
2013-01-10 10:59:00,75.1,69.2,30.24,ESE,113,2.0,8.0,82,0.00,,---,0.01,VWS V14.01,2013-01-10 15:59:00,
2013-01-10 11:01:00,75.3,69.4,30.24,ENE,74,3.0,8.0,82,0.00,,---,0.01,VWS V14.01,2013-01-10 16:01:00,
2013-01-10 11:02:00,75.3,69.4,30.24,East,83,2.0,6.0,82,0.00,,---,0.01,VWS V14.01,2013-01-10 16:02:00,
2013-01-10 11:04:00,75.6,69.0,30.24,East,85,6.0,12.0,80,0.00,,---,0.01,VWS V14.01,2013-01-10 16:04:00,
2013-01-10 11:06:00,75.7,69.1,30.24,East,85,8.0,12.0,80,0.00,,---,0.01,VWS V14.01,2013-01-10 16:06:00,
2013-01-10 11:07:00,75.8,69.2,30.24,ESE,123,3.0,8.0,80,0.00,,---,0.01,VWS V14.01,2013-01-10 16:07:00,
2013-01-10 11:11:00,76.1,68.8,30.24,NE,44,5.0,8.0,78,0.00,,---,0.01,VWS V14.01,2013-01-10 16:11:00,
2013-01-10 11:13:00,76.3,68.6,30.24,ENE,74,4.0,6.0,77,0.00,,---,0.01,VWS V14.01,2013-01-10 16:13:00,
2013-01-10 11:15:00,76.4,68.3,30.24,ESE,107,3.0,8.0,76,0.00,,---,0.01,VWS V14.01,2013-01-10 16:15:00,
2013-01-10 11:16:00,76.5,68.4,30.24,East,95,5.0,9.0,76,0.00,,---,0.01,VWS V14.01,2013-01-10 16:16:00,
2013-01-10 11:19:00,76.5,68.0,30.23,ENE,61,2.0,10.0,75,0.00,,---,0.01,VWS V14.01,2013-01-10 16:19:00,
2013-01-10 11:21:00,76.6,68.1,30.23,ENE,65,4.0,4.0,75,0.00,,---,0.01,VWS V14.01,2013-01-10 16:21:00,
2013-01-10 11:22:00,76.7,67.4,30.23,East,82,6.0,6.0,73,0.00,,---,0.01,VWS V14.01,2013-01-10 16:22:00,
2013-01-10 11:25:00,76.9,67.2,30.23,South,170,3.0,9.0,72,0.00,,---,0.01,VWS V14.01,2013-01-10 16:25:00,
2013-01-10 11:26:00,76.9,67.2,30.23,East,89,2.0,3.0,72,0.00,,---,0.01,VWS V14.01,2013-01-10 16:26:00,
2013-01-10 11:27:00,77.0,67.3,30.23,ESE,109,4.0,5.0,72,0.00,,---,0.01,VWS V14.01,2013-01-10 16:27:00,
2013-01-10 11:30:00,77.1,67.0,30.23,ENE,64,8.0,9.0,71,0.00,,---,0.01,VWS V14.01,2013-01-10 16:30:00,
2013-01-10 11:33:00,77.3,67.2,30.23,ENE,65,8.0,12.0,71,0.00,,---,0.01,VWS V14.01,2013-01-10 16:33:00,
2013-01-10 11:36:00,77.5,66.9,30.23,ENE,71,2.0,9.0,70,0.00,,---,0.01,VWS V14.01,2013-01-10 16:36:00,
2013-01-10 11:38:00,77.7,66.7,30.23,ENE,67,3.0,9.0,69,0.00,,---,0.01,VWS V14.01,2013-01-10 16:38:00,
2013-01-10 11:39:00,77.8,66.8,30.23,NE,44,1.0,9.0,69,0.00,,---,0.01,VWS V14.01,2013-01-10 16:39:00,
2013-01-10 11:40:00,77.8,66.8,30.23,NNE,15,3.0,9.0,69,0.00,,---,0.01,VWS V14.01,2013-01-10 16:40:00,
2013-01-10 11:41:00,77.8,67.2,30.22,ENE,78,2.0,5.0,70,0.00,,---,0.01,VWS V14.01,2013-01-10 16:41:00,
2013-01-10 11:44:00,78.0,67.0,30.22,NE,38,1.0,10.0,69,0.00,,---,0.01,VWS V14.01,2013-01-10 16:44:00,
2013-01-10 11:45:00,78.0,67.0,30.23,ENE,57,4.0,10.0,69,0.00,,---,0.01,VWS V14.01,2013-01-10 16:45:00,
2013-01-10 11:47:00,78.1,66.7,30.22,East,97,2.0,4.0,68,0.00,,---,0.01,VWS V14.01,2013-01-10 16:47:00,
2013-01-10 11:49:00,78.2,66.8,30.22,SE,130,2.0,7.0,68,0.00,,---,0.01,VWS V14.01,2013-01-10 16:49:00,
2013-01-10 11:51:00,78.3,66.0,30.22,East,101,5.0,9.0,66,0.00,,---,0.01,VWS V14.01,2013-01-10 16:51:00,
2013-01-10 11:53:00,78.4,66.6,30.22,ESE,109,3.0,7.0,67,0.00,,---,0.01,VWS V14.01,2013-01-10 16:53:00,
2013-01-10 11:54:00,78.4,67.0,30.22,ENE,57,3.0,7.0,68,0.00,,---,0.01,VWS V14.01,2013-01-10 16:54:00,
2013-01-10 11:57:00,78.5,66.6,30.22,East,95,3.0,9.0,67,0.00,,---,0.01,VWS V14.01,2013-01-10 16:57:00,
2013-01-10 11:58:00,78.6,66.3,30.22,NE,37,2.0,9.0,66,0.00,,---,0.01,VWS V14.01,2013-01-10 16:58:00,
2013-01-10 11:59:00,78.6,66.3,30.22,East,88,2.0,9.0,66,0.00,,---,0.01,VWS V14.01,2013-01-10 16:59:00,
2013-01-10 12:02:00,78.6,65.9,30.22,ESE,117,8.0,8.0,65,0.00,,---,0.01,VWS V14.01,2013-01-10 17:02:00,
2013-01-10 12:04:00,78.6,65.9,30.21,East,89,3.0,8.0,65,0.00,,---,0.01,VWS V14.01,2013-01-10 17:04:00,
2013-01-10 12:08:00,78.5,66.2,30.22,ENE,58,2.0,9.0,66,0.00,,---,0.01,VWS V14.01,2013-01-10 17:08:00,
2013-01-10 12:09:00,78.6,66.7,30.21,ENE,69,2.0,9.0,67,0.00,,---,0.01,VWS V14.01,2013-01-10 17:09:00,
2013-01-10 12:11:00,78.7,67.3,30.21,NE,53,3.0,9.0,68,0.00,,---,0.01,VWS V14.01,2013-01-10 17:11:00,
2013-01-10 12:14:00,78.9,67.4,30.21,ENE,74,2.0,6.0,68,0.00,,---,0.01,VWS V14.01,2013-01-10 17:14:00,
2013-01-10 12:16:00,78.8,66.5,30.21,SE,138,3.0,4.0,66,0.00,,---,0.01,VWS V14.01,2013-01-10 17:16:00,
2013-01-10 12:19:00,78.5,65.3,30.21,East,100,3.0,13.0,64,0.00,,---,0.01,VWS V14.01,2013-01-10 17:19:00,
2013-01-10 12:21:00,78.4,65.7,30.21,NE,50,2.0,4.0,65,0.00,,---,0.01,VWS V14.01,2013-01-10 17:21:00,
2013-01-10 12:22:00,78.4,66.1,30.21,NE,50,2.0,4.0,66,0.00,,---,0.01,VWS V14.01,2013-01-10 17:22:00,
2013-01-10 12:23:00,78.4,66.1,30.21,ENE,72,2.0,4.0,66,0.00,,---,0.01,VWS V14.01,2013-01-10 17:23:00,
2013-01-10 12:26:00,78.5,66.6,30.21,East,81,2.0,4.0,67,0.00,,---,0.01,VWS V14.01,2013-01-10 17:26:00,
2013-01-10 12:27:00,78.6,67.2,30.21,East,93,3.0,3.0,68,0.00,,---,0.01,VWS V14.01,2013-01-10 17:27:00,
2013-01-10 12:28:00,78.7,66.8,30.21,East,99,7.0,7.0,67,0.00,,---,0.01,VWS V14.01,2013-01-10 17:28:00,
2013-01-10 12:31:00,78.8,66.5,30.21,ENE,57,2.0,7.0,66,0.00,,---,0.01,VWS V14.01,2013-01-10 17:31:00,
2013-01-10 12:32:00,78.8,66.5,30.21,East,94,5.0,5.0,66,0.00,,---,0.01,VWS V14.01,2013-01-10 17:32:00,
2013-01-10 12:33:00,78.8,66.5,30.21,NE,47,5.0,7.0,66,0.00,,---,0.01,VWS V14.01,2013-01-10 17:33:00,
2013-01-10 12:36:00,78.9,66.6,30.21,East,99,3.0,3.0,66,0.00,,---,0.01,VWS V14.01,2013-01-10 17:36:00,
2013-01-10 12:38:00,78.9,66.2,30.21,ENE,57,4.0,7.0,65,0.00,,---,0.01,VWS V14.01,2013-01-10 17:38:00,
2013-01-10 12:39:00,78.9,66.2,30.21,NE,34,3.0,7.0,65,0.00,,---,0.01,VWS V14.01,2013-01-10 17:39:00,
2013-01-10 12:41:00,78.9,66.2,30.21,NE,44,2.0,5.0,65,0.00,,---,0.01,VWS V14.01,2013-01-10 17:41:00,
2013-01-10 12:43:00,78.9,66.2,30.21,NE,45,4.0,7.0,65,0.00,,---,0.01,VWS V14.01,2013-01-10 17:43:00,
2013-01-10 12:44:00,78.9,66.2,30.21,NE,56,3.0,7.0,65,0.00,,---,0.01,VWS V14.01,2013-01-10 17:44:00,
2013-01-10 12:46:00,79.1,66.8,30.21,ESE,103,2.0,3.0,66,0.00,,---,0.01,VWS V14.01,2013-01-10 17:46:00,
2013-01-10 12:49:00,79.3,67.0,30.20,ENE,64,4.0,6.0,66,0.00,,---,0.01,VWS V14.01,2013-01-10 17:49:00,
2013-01-10 12:51:00,79.5,66.7,30.20,ENE,58,3.0,3.0,65,0.00,,---,0.01,VWS V14.01,2013-01-10 17:51:00,
2013-01-10 12:54:00,79.7,66.0,30.20,East,90,2.0,7.0,63,0.00,,---,0.01,VWS V14.01,2013-01-10 17:54:00,
2013-01-10 12:55:00,79.7,66.5,30.20,NE,50,3.0,7.0,64,0.00,,---,0.01,VWS V14.01,2013-01-10 17:55:00,
2013-01-10 12:57:00,79.7,66.0,30.20,East,87,2.0,5.0,63,0.00,,---,0.01,VWS V14.01,2013-01-10 17:57:00,
2013-01-10 13:00:00,80.0,66.7,30.20,NNE,27,5.0,5.0,64,0.00,,---,0.01,VWS V14.01,2013-01-10 18:00:00,
2013-01-10 13:01:00,80.0,66.3,30.20,NE,38,3.0,5.0,63,0.00,,---,0.01,VWS V14.01,2013-01-10 18:01:00,
2013-01-10 13:02:00,80.0,66.3,30.20,ENE,73,4.0,7.0,63,0.00,,---,0.01,VWS V14.01,2013-01-10 18:02:00,
2013-01-10 13:05:00,80.1,66.4,30.20,NE,55,7.0,7.0,63,0.00,,---,0.01,VWS V14.01,2013-01-10 18:05:00,
2013-01-10 13:07:00,80.0,65.8,30.20,NE,34,2.0,7.0,62,0.00,,---,0.01,VWS V14.01,2013-01-10 18:07:00,
2013-01-10 13:10:00,80.1,66.4,30.21,NNE,24,2.0,7.0,63,0.00,,---,0.01,VWS V14.01,2013-01-10 18:10:00,
2013-01-10 13:12:00,80.3,66.1,30.21,NE,48,4.0,5.0,62,0.00,,---,0.01,VWS V14.01,2013-01-10 18:12:00,
2013-01-10 13:13:00,80.3,66.1,30.21,NE,34,5.0,5.0,62,0.00,,---,0.01,VWS V14.01,2013-01-10 18:13:00,
2013-01-10 13:16:00,80.2,66.0,30.21,NNE,24,3.0,3.0,62,0.00,,---,0.01,VWS V14.01,2013-01-10 18:16:00,
2013-01-10 13:18:00,80.0,65.8,30.21,NNE,33,4.0,5.0,62,0.00,,---,0.01,VWS V14.01,2013-01-10 18:18:00,
2013-01-10 13:19:00,80.0,65.8,30.20,NE,38,2.0,5.0,62,0.00,,---,0.01,VWS V14.01,2013-01-10 18:19:00,
2013-01-10 13:21:00,80.0,65.8,30.21,NNE,15,3.0,4.0,62,0.00,,---,0.01,VWS V14.01,2013-01-10 18:21:00,
2013-01-10 13:24:00,80.0,65.8,30.21,East,94,3.0,6.0,62,0.00,,---,0.01,VWS V14.01,2013-01-10 18:24:00,
2013-01-10 13:26:00,80.2,66.5,30.21,NE,55,3.0,3.0,63,0.00,,---,0.01,VWS V14.01,2013-01-10 18:26:00,
2013-01-10 13:29:00,80.3,66.1,30.21,ENE,58,2.0,4.0,62,0.00,,---,0.01,VWS V14.01,2013-01-10 18:29:00,
2013-01-10 13:30:00,80.3,66.6,30.21,ENE,58,2.0,4.0,63,0.00,,---,0.01,VWS V14.01,2013-01-10 18:30:00,
2013-01-10 13:31:00,80.3,66.1,30.21,ENE,59,3.0,3.0,62,0.00,,---,0.01,VWS V14.01,2013-01-10 18:31:00,
2013-01-10 13:32:00,80.3,66.1,30.21,ENE,59,2.0,3.0,62,0.00,,---,0.01,VWS V14.01,2013-01-10 18:32:00,
2013-01-10 13:35:00,80.2,66.5,30.21,ENE,67,1.0,4.0,63,0.00,,---,0.01,VWS V14.01,2013-01-10 18:35:00,
2013-01-10 13:36:00,80.2,66.5,30.21,ENE,67,1.0,4.0,63,0.00,,---,0.01,VWS V14.01,2013-01-10 18:36:00,
2013-01-10 13:37:00,80.3,66.6,30.21,NE,55,3.0,4.0,63,0.00,,---,0.01,VWS V14.01,2013-01-10 18:37:00,
2013-01-10 13:38:00,80.2,66.0,30.21,ENE,69,1.0,4.0,62,0.00,,---,0.01,VWS V14.01,2013-01-10 18:38:00,
2013-01-10 13:40:00,80.3,66.6,30.21,East,82,3.0,4.0,63,0.00,,---,0.01,VWS V14.01,2013-01-10 18:40:00,
2013-01-10 13:41:00,80.3,66.6,30.21,NE,36,1.0,4.0,63,0.00,,---,0.01,VWS V14.01,2013-01-10 18:41:00,
2013-01-10 13:42:00,80.4,66.7,30.20,North,5,3.0,5.0,63,0.00,,---,0.01,VWS V14.01,2013-01-10 18:42:00,
2013-01-10 13:43:00,80.4,66.7,30.20,NE,46,5.0,5.0,63,0.00,,---,0.01,VWS V14.01,2013-01-10 18:43:00,
2013-01-10 13:46:00,80.5,66.8,30.20,NE,42,4.0,5.0,63,0.00,,---,0.01,VWS V14.01,2013-01-10 18:46:00,
2013-01-10 13:47:00,80.5,66.3,30.20,NNE,30,3.0,4.0,62,0.00,,---,0.01,VWS V14.01,2013-01-10 18:47:00,
2013-01-10 13:48:00,80.5,66.8,30.20,NE,34,5.0,5.0,63,0.00,,---,0.01,VWS V14.01,2013-01-10 18:48:00,
2013-01-10 13:51:00,80.6,66.8,30.20,NNE,29,2.0,3.0,63,0.00,,---,0.01,VWS V14.01,2013-01-10 18:51:00,
2013-01-10 13:52:00,80.7,66.9,30.20,NNE,33,2.0,3.0,63,0.00,,---,0.01,VWS V14.01,2013-01-10 18:52:00,
2013-01-10 13:53:00,80.7,66.9,30.20,North,11,2.0,3.0,63,0.00,,---,0.01,VWS V14.01,2013-01-10 18:53:00,
2013-01-10 13:55:00,80.8,67.0,30.20,ENE,61,2.0,3.0,63,0.00,,---,0.01,VWS V14.01,2013-01-10 18:55:00,
2013-01-10 13:57:00,80.8,66.6,30.20,NE,44,3.0,5.0,62,0.00,,---,0.01,VWS V14.01,2013-01-10 18:57:00,
2013-01-10 13:58:00,80.9,67.1,30.20,ENE,71,3.0,5.0,63,0.00,,---,0.01,VWS V14.01,2013-01-10 18:58:00,
2013-01-10 14:02:00,80.7,66.0,30.20,ENE,63,1.0,5.0,61,0.00,,---,0.01,VWS V14.01,2013-01-10 19:02:00,
2013-01-10 14:03:00,80.7,66.0,30.20,NE,34,1.0,7.0,61,0.00,,---,0.01,VWS V14.01,2013-01-10 19:03:00,
2013-01-10 14:07:00,80.5,66.3,30.21,ENE,63,4.0,4.0,62,0.00,,---,0.01,VWS V14.01,2013-01-10 19:07:00,
2013-01-10 14:08:00,80.4,66.2,30.20,NE,46,2.0,5.0,62,0.00,,---,0.01,VWS V14.01,2013-01-10 19:08:00,
2013-01-10 14:09:00,80.3,66.1,30.21,NE,46,3.0,5.0,62,0.00,,---,0.01,VWS V14.01,2013-01-10 19:09:00,
2013-01-10 14:13:00,80.1,66.4,30.20,NE,52,2.0,3.0,63,0.00,,---,0.01,VWS V14.01,2013-01-10 19:13:00,
2013-01-10 14:14:00,80.0,66.3,30.20,NE,55,2.0,3.0,63,0.00,,---,0.01,VWS V14.01,2013-01-10 19:14:00,
2013-01-10 14:15:00,80.0,66.3,30.20,NE,40,2.0,3.0,63,0.00,,---,0.01,VWS V14.01,2013-01-10 19:15:00,
2013-01-10 14:18:00,79.8,66.1,30.20,ENE,57,1.0,3.0,63,0.00,,---,0.01,VWS V14.01,2013-01-10 19:18:00,
2013-01-10 14:19:00,79.8,66.1,30.20,ENE,78,3.0,3.0,63,0.00,,---,0.01,VWS V14.01,2013-01-10 19:19:00,
2013-01-10 14:20:00,79.8,65.6,30.20,NE,34,3.0,4.0,62,0.00,,---,0.01,VWS V14.01,2013-01-10 19:20:00,
2013-01-10 14:21:00,79.8,65.6,30.20,NE,42,2.0,2.0,62,0.00,,---,0.01,VWS V14.01,2013-01-10 19:21:00,
2013-01-10 14:24:00,79.8,66.1,30.20,NE,48,2.0,4.0,63,0.00,,---,0.01,VWS V14.01,2013-01-10 19:24:00,
2013-01-10 14:25:00,79.8,66.1,30.20,NE,45,3.0,4.0,63,0.00,,---,0.01,VWS V14.01,2013-01-10 19:25:00,
2013-01-10 14:26:00,79.8,66.1,30.20,NNE,30,1.0,1.0,63,0.00,,---,0.01,VWS V14.01,2013-01-10 19:26:00,
2013-01-10 14:27:00,79.8,65.6,30.20,NNE,32,2.0,2.0,62,0.00,,---,0.01,VWS V14.01,2013-01-10 19:27:00,
2013-01-10 14:30:00,79.9,66.2,30.20,NE,43,2.0,2.0,63,0.00,,---,0.01,VWS V14.01,2013-01-10 19:30:00,
2013-01-10 14:32:00,80.0,66.3,30.20,ENE,65,1.0,2.0,63,0.00,,---,0.01,VWS V14.01,2013-01-10 19:32:00,
2013-01-10 14:35:00,80.1,66.4,30.21,NE,37,2.0,4.0,63,0.00,,---,0.01,VWS V14.01,2013-01-10 19:35:00,
2013-01-10 14:36:00,80.1,66.4,30.21,NE,37,2.0,4.0,63,0.00,,---,0.01,VWS V14.01,2013-01-10 19:36:00,
2013-01-10 14:37:00,80.2,66.5,30.21,NE,37,0.0,2.0,63,0.00,,---,0.01,VWS V14.01,2013-01-10 19:37:00,
2013-01-10 14:41:00,80.4,65.7,30.21,ENE,57,0.0,3.0,61,0.00,,---,0.01,VWS V14.01,2013-01-10 19:41:00,
2013-01-10 14:42:00,80.5,66.3,30.21,ENE,59,1.0,2.0,62,0.00,,---,0.01,VWS V14.01,2013-01-10 19:42:00,
2013-01-10 14:46:00,80.4,66.2,30.21,ENE,61,1.0,3.0,62,0.00,,---,0.01,VWS V14.01,2013-01-10 19:46:00,
2013-01-10 14:48:00,80.3,65.6,30.21,ENE,57,2.0,3.0,61,0.00,,---,0.01,VWS V14.01,2013-01-10 19:48:00,
2013-01-10 14:51:00,80.0,65.8,30.21,East,82,2.0,2.0,62,0.00,,---,0.01,VWS V14.01,2013-01-10 19:51:00,
2013-01-10 14:53:00,79.8,65.6,30.21,East,82,2.0,2.0,62,0.00,,---,0.01,VWS V14.01,2013-01-10 19:53:00,
2013-01-10 14:54:00,79.8,65.6,30.21,East,82,2.0,2.0,62,0.00,,---,0.01,VWS V14.01,2013-01-10 19:54:00,
2013-01-10 14:58:00,79.7,66.0,30.21,East,82,1.0,2.0,63,0.00,,---,0.01,VWS V14.01,2013-01-10 19:58:00,
2013-01-10 14:59:00,79.7,66.0,30.21,East,82,2.0,2.0,63,0.00,,---,0.01,VWS V14.01,2013-01-10 19:59:00,
2013-01-10 15:00:00,79.7,65.5,30.21,East,82,2.0,2.0,62,0.00,,---,0.01,VWS V14.01,2013-01-10 20:00:00,
2013-01-10 15:03:00,79.6,65.4,30.21,East,82,0.0,2.0,62,0.00,,---,0.01,VWS V14.01,2013-01-10 20:03:00,
2013-01-10 15:04:00,79.5,65.8,30.21,East,82,1.0,2.0,63,0.00,,---,0.01,VWS V14.01,2013-01-10 20:04:00,
2013-01-10 15:05:00,79.5,65.8,30.21,East,82,0.0,2.0,63,0.00,,---,0.01,VWS V14.01,2013-01-10 20:05:00,
2013-01-10 15:08:00,79.5,65.8,30.21,East,82,0.0,1.0,63,0.00,,---,0.01,VWS V14.01,2013-01-10 20:08:00,
2013-01-10 15:10:00,79.6,66.4,30.21,East,82,2.0,2.0,64,0.00,,---,0.01,VWS V14.01,2013-01-10 20:10:00,
2013-01-10 15:11:00,79.6,65.4,30.21,NE,44,1.0,2.0,62,0.00,,---,0.01,VWS V14.01,2013-01-10 20:11:00,
2013-01-10 15:14:00,79.7,66.0,30.21,NE,44,2.0,2.0,63,0.00,,---,0.01,VWS V14.01,2013-01-10 20:14:00,
2013-01-10 15:16:00,79.8,66.1,30.21,NE,44,1.0,2.0,63,0.00,,---,0.01,VWS V14.01,2013-01-10 20:16:00,
2013-01-10 15:17:00,80.0,66.7,30.21,ESE,119,2.0,2.0,64,0.00,,---,0.01,VWS V14.01,2013-01-10 20:17:00,
2013-01-10 15:20:00,80.2,66.0,30.21,ESE,114,2.0,3.0,62,0.00,,---,0.01,VWS V14.01,2013-01-10 20:20:00,
2013-01-10 15:21:00,80.2,66.0,30.21,East,80,1.0,2.0,62,0.00,,---,0.01,VWS V14.01,2013-01-10 20:21:00,
2013-01-10 15:22:00,80.3,66.1,30.21,NE,40,2.0,3.0,62,0.00,,---,0.01,VWS V14.01,2013-01-10 20:22:00,
2013-01-10 15:26:00,80.4,65.7,30.21,East,85,2.0,3.0,61,0.00,,---,0.01,VWS V14.01,2013-01-10 20:26:00,
2013-01-10 15:27:00,80.3,65.6,30.21,NE,56,2.0,4.0,61,0.00,,---,0.01,VWS V14.01,2013-01-10 20:27:00,
2013-01-10 15:32:00,80.3,66.1,30.21,ENE,76,3.0,4.0,62,0.00,,---,0.01,VWS V14.01,2013-01-10 20:32:00,
2013-01-10 15:37:00,80.4,65.7,30.21,ENE,74,1.0,2.0,61,0.00,,---,0.01,VWS V14.01,2013-01-10 20:37:00,
2013-01-10 15:38:00,80.4,66.2,30.21,ENE,72,1.0,2.0,62,0.00,,---,0.01,VWS V14.01,2013-01-10 20:38:00,
2013-01-10 15:42:00,80.4,66.2,30.21,ENE,76,2.0,3.0,62,0.00,,---,0.01,VWS V14.01,2013-01-10 20:42:00,
2013-01-10 15:43:00,80.4,66.2,30.21,ENE,76,0.0,3.0,62,0.00,,---,0.01,VWS V14.01,2013-01-10 20:43:00,
2013-01-10 15:48:00,80.3,66.1,30.21,ENE,76,1.0,1.0,62,0.00,,---,0.01,VWS V14.01,2013-01-10 20:48:00,
2013-01-10 15:49:00,80.3,66.1,30.21,ENE,76,0.0,1.0,62,0.00,,---,0.01,VWS V14.01,2013-01-10 20:49:00,
2013-01-10 15:54:00,80.4,66.2,30.21,ENE,76,0.0,1.0,62,0.00,,---,0.01,VWS V14.01,2013-01-10 20:54:00,
2013-01-10 15:55:00,80.5,66.8,30.21,ENE,76,0.0,1.0,63,0.00,,---,0.01,VWS V14.01,2013-01-10 20:55:00,
2013-01-10 16:00:00,80.8,66.6,30.21,NNE,25,1.0,3.0,62,0.00,,---,0.01,VWS V14.01,2013-01-10 21:00:00,
2013-01-10 16:05:00,81.0,66.3,30.21,ENE,67,1.0,3.0,61,0.00,,---,0.01,VWS V14.01,2013-01-10 21:05:00,
2013-01-10 16:06:00,81.0,66.3,30.21,ENE,67,1.0,3.0,61,0.00,,---,0.01,VWS V14.01,2013-01-10 21:06:00,
2013-01-10 16:10:00,81.2,66.5,30.21,NE,38,0.0,2.0,61,0.00,,---,0.01,VWS V14.01,2013-01-10 21:10:00,
2013-01-10 16:11:00,81.2,66.5,30.21,NE,38,0.0,2.0,61,0.00,,---,0.01,VWS V14.01,2013-01-10 21:11:00,
2013-01-10 16:16:00,81.4,66.2,30.21,NE,53,1.0,3.0,60,0.00,,---,0.01,VWS V14.01,2013-01-10 21:16:00,
2013-01-10 16:21:00,81.3,66.1,30.21,ENE,69,4.0,4.0,60,0.00,,---,0.01,VWS V14.01,2013-01-10 21:21:00,
2013-01-10 16:22:00,81.3,66.1,30.21,East,100,3.0,4.0,60,0.00,,---,0.01,VWS V14.01,2013-01-10 21:22:00,
2013-01-10 16:26:00,81.1,65.9,30.21,NE,44,0.0,1.0,60,0.00,,---,0.01,VWS V14.01,2013-01-10 21:26:00,
2013-01-10 16:27:00,81.1,66.4,30.21,NE,44,1.0,1.0,61,0.00,,---,0.01,VWS V14.01,2013-01-10 21:27:00,
2013-01-10 16:29:00,81.1,66.4,30.21,NE,40,1.0,3.0,61,0.00,,---,0.01,VWS V14.01,2013-01-10 21:29:00,
2013-01-10 16:32:00,81.2,66.5,30.21,NE,40,2.0,2.0,61,0.00,,---,0.01,VWS V14.01,2013-01-10 21:32:00,
2013-01-10 16:33:00,81.2,66.5,30.21,NE,43,2.0,2.0,61,0.00,,---,0.01,VWS V14.01,2013-01-10 21:33:00,
2013-01-10 16:34:00,81.2,66.5,30.21,NE,43,1.0,2.0,61,0.00,,---,0.01,VWS V14.01,2013-01-10 21:34:00,
2013-01-10 16:38:00,81.1,66.4,30.21,ENE,72,1.0,3.0,61,0.00,,---,0.01,VWS V14.01,2013-01-10 21:38:00,
2013-01-10 16:39:00,81.0,66.3,30.21,ENE,72,1.0,3.0,61,0.00,,---,0.01,VWS V14.01,2013-01-10 21:39:00,
2013-01-10 16:44:00,80.9,66.7,30.21,ENE,72,0.0,1.0,62,0.00,,---,0.01,VWS V14.01,2013-01-10 21:44:00,
2013-01-10 16:45:00,80.9,66.7,30.21,ENE,72,0.0,1.0,62,0.00,,---,0.01,VWS V14.01,2013-01-10 21:45:00,
2013-01-10 16:49:00,80.7,66.9,30.21,ENE,72,0.0,1.0,63,0.00,,---,0.01,VWS V14.01,2013-01-10 21:49:00,
2013-01-10 16:50:00,80.7,66.9,30.21,ENE,72,0.0,1.0,63,0.00,,---,0.01,VWS V14.01,2013-01-10 21:50:00,
2013-01-10 16:54:00,80.5,67.2,30.21,ENE,72,0.0,1.0,64,0.00,,---,0.01,VWS V14.01,2013-01-10 21:54:00,
2013-01-10 16:55:00,80.5,67.2,30.21,ENE,72,0.0,1.0,64,0.00,,---,0.01,VWS V14.01,2013-01-10 21:55:00,
2013-01-10 17:00:00,79.8,67.0,30.21,ESE,103,0.0,2.0,65,0.00,,---,0.01,VWS V14.01,2013-01-10 22:00:00,
2013-01-10 17:02:00,79.7,67.3,30.21,ESE,103,0.0,1.0,66,0.00,,---,0.01,VWS V14.01,2013-01-10 22:02:00,
2013-01-10 17:06:00,79.4,67.1,30.21,ESE,103,0.0,2.0,66,0.00,,---,0.01,VWS V14.01,2013-01-10 22:06:00,
2013-01-10 17:07:00,79.3,67.0,30.20,ESE,103,0.0,1.0,66,0.00,,---,0.01,VWS V14.01,2013-01-10 22:07:00,
2013-01-10 17:08:00,79.2,66.9,30.20,ESE,103,0.0,1.0,66,0.00,,---,0.01,VWS V14.01,2013-01-10 22:08:00,
2013-01-10 17:11:00,78.9,66.6,30.20,East,92,0.0,0.0,66,0.00,,---,0.01,VWS V14.01,2013-01-10 22:11:00,
2013-01-10 17:12:00,78.9,66.6,30.20,East,92,0.0,0.0,66,0.00,,---,0.01,VWS V14.01,2013-01-10 22:12:00,
2013-01-10 17:13:00,78.8,66.5,30.20,East,92,0.0,0.0,66,0.00,,---,0.01,VWS V14.01,2013-01-10 22:13:00,
2013-01-10 17:17:00,78.5,66.6,30.21,East,92,0.0,0.0,67,0.00,,---,0.01,VWS V14.01,2013-01-10 22:17:00,
2013-01-10 17:18:00,78.4,66.6,30.20,ENE,71,1.0,2.0,67,0.00,,---,0.01,VWS V14.01,2013-01-10 22:18:00,
2013-01-10 17:22:00,78.2,66.8,30.21,East,88,0.0,2.0,68,0.00,,---,0.01,VWS V14.01,2013-01-10 22:22:00,
2013-01-10 17:24:00,78.0,66.6,30.21,ESE,103,1.0,2.0,68,0.00,,---,0.01,VWS V14.01,2013-01-10 22:24:00,
2013-01-10 17:28:00,77.8,66.8,30.21,ESE,102,0.0,2.0,69,0.00,,---,0.01,VWS V14.01,2013-01-10 22:28:00,
2013-01-10 17:29:00,77.7,66.3,30.21,East,99,0.0,3.0,68,0.00,,---,0.01,VWS V14.01,2013-01-10 22:29:00,
2013-01-10 17:34:00,77.5,66.5,30.21,East,99,1.0,1.0,69,0.00,,---,0.01,VWS V14.01,2013-01-10 22:34:00,
2013-01-10 17:36:00,77.3,66.3,30.21,East,99,0.0,1.0,69,0.00,,---,0.01,VWS V14.01,2013-01-10 22:36:00,
2013-01-10 17:39:00,77.2,66.7,30.21,East,99,2.0,2.0,70,0.00,,---,0.01,VWS V14.01,2013-01-10 22:39:00,
2013-01-10 17:40:00,77.1,66.2,30.21,East,99,0.0,2.0,69,0.00,,---,0.01,VWS V14.01,2013-01-10 22:40:00,
2013-01-10 17:41:00,77.0,66.5,30.21,East,99,0.0,0.0,70,0.00,,---,0.01,VWS V14.01,2013-01-10 22:41:00,
2013-01-10 17:45:00,76.8,66.3,30.21,East,99,0.0,1.0,70,0.00,,---,0.01,VWS V14.01,2013-01-10 22:45:00,
2013-01-10 17:46:00,76.7,66.2,30.21,East,99,0.0,1.0,70,0.00,,---,0.01,VWS V14.01,2013-01-10 22:46:00,
2013-01-10 17:50:00,76.5,66.4,30.21,East,99,0.0,1.0,71,0.00,,---,0.01,VWS V14.01,2013-01-10 22:50:00,
2013-01-10 17:51:00,76.4,66.3,30.21,East,99,1.0,1.0,71,0.00,,---,0.01,VWS V14.01,2013-01-10 22:51:00,
2013-01-10 17:52:00,76.3,66.2,30.21,East,99,0.0,1.0,71,0.00,,---,0.01,VWS V14.01,2013-01-10 22:52:00,
2013-01-10 17:55:00,76.1,66.4,30.21,East,99,0.0,1.0,72,0.00,,---,0.01,VWS V14.01,2013-01-10 22:55:00,
2013-01-10 17:56:00,76.0,66.3,30.21,East,99,0.0,0.0,72,0.00,,---,0.01,VWS V14.01,2013-01-10 22:56:00,
2013-01-10 17:57:00,76.0,66.3,30.21,East,99,0.0,0.0,72,0.00,,---,0.01,VWS V14.01,2013-01-10 22:57:00,
2013-01-10 18:01:00,75.8,66.1,30.21,East,99,0.0,0.0,72,0.00,,---,0.01,VWS V14.01,2013-01-10 23:01:00,
2013-01-10 18:02:00,75.7,66.4,30.21,East,99,0.0,1.0,73,0.00,,---,0.01,VWS V14.01,2013-01-10 23:02:00,
2013-01-10 18:03:00,75.7,66.4,30.21,East,99,1.0,1.0,73,0.00,,---,0.01,VWS V14.01,2013-01-10 23:03:00,
2013-01-10 18:06:00,75.5,66.2,30.21,East,99,0.0,1.0,73,0.00,,---,0.01,VWS V14.01,2013-01-10 23:06:00,
2013-01-10 18:08:00,75.4,66.2,30.21,East,99,0.0,1.0,73,0.00,,---,0.01,VWS V14.01,2013-01-10 23:08:00,
2013-01-10 18:12:00,75.2,66.0,30.21,East,99,0.0,1.0,73,0.00,,---,0.01,VWS V14.01,2013-01-10 23:12:00,
2013-01-10 18:14:00,75.1,65.9,30.21,East,99,0.0,1.0,73,0.00,,---,0.01,VWS V14.01,2013-01-10 23:14:00,
2013-01-10 18:17:00,75.0,66.2,30.21,East,99,0.0,1.0,74,0.00,,---,0.01,VWS V14.01,2013-01-10 23:17:00,
2013-01-10 18:20:00,75.0,66.2,30.21,East,99,0.0,1.0,74,0.00,,---,0.01,VWS V14.01,2013-01-10 23:20:00,
2013-01-10 18:21:00,74.9,66.1,30.21,East,99,0.0,1.0,74,0.00,,---,0.01,VWS V14.01,2013-01-10 23:21:00,
2013-01-10 18:22:00,74.9,66.1,30.21,East,99,0.0,1.0,74,0.00,,---,0.01,VWS V14.01,2013-01-10 23:22:00,
2013-01-10 18:25:00,74.7,65.9,30.21,East,99,0.0,1.0,74,0.00,,---,0.01,VWS V14.01,2013-01-10 23:25:00,
2013-01-10 18:26:00,74.7,65.9,30.21,East,99,1.0,1.0,74,0.00,,---,0.01,VWS V14.01,2013-01-10 23:26:00,
2013-01-10 18:27:00,74.6,65.8,30.21,East,98,0.0,1.0,74,0.00,,---,0.01,VWS V14.01,2013-01-10 23:27:00,
2013-01-10 18:31:00,74.5,66.1,30.21,East,98,0.0,0.0,75,0.00,,---,0.01,VWS V14.01,2013-01-10 23:31:00,
2013-01-10 18:32:00,74.4,66.0,30.21,East,98,0.0,1.0,75,0.00,,---,0.01,VWS V14.01,2013-01-10 23:32:00,
2013-01-10 18:33:00,74.4,66.0,30.21,East,98,0.0,1.0,75,0.00,,---,0.01,VWS V14.01,2013-01-10 23:33:00,
2013-01-10 18:37:00,74.1,65.7,30.21,East,98,0.0,1.0,75,0.00,,---,0.01,VWS V14.01,2013-01-10 23:37:00,
2013-01-10 18:38:00,74.1,65.7,30.21,East,98,0.0,2.0,75,0.00,,---,0.01,VWS V14.01,2013-01-10 23:38:00,
2013-01-10 18:39:00,74.0,66.0,30.21,East,98,1.0,2.0,76,0.00,,---,0.01,VWS V14.01,2013-01-10 23:39:00,
2013-01-10 18:43:00,73.9,65.9,30.21,East,98,0.0,1.0,76,0.00,,---,0.01,VWS V14.01,2013-01-10 23:43:00,
2013-01-10 18:44:00,73.9,65.9,30.21,East,98,0.0,1.0,76,0.00,,---,0.01,VWS V14.01,2013-01-10 23:44:00,
2013-01-10 18:46:00,73.8,65.8,30.21,East,98,1.0,1.0,76,0.00,,---,0.01,VWS V14.01,2013-01-10 23:46:00,
2013-01-10 18:48:00,73.8,65.8,30.21,East,98,0.0,1.0,76,0.00,,---,0.01,VWS V14.01,2013-01-10 23:48:00,
2013-01-10 18:49:00,73.7,65.7,30.21,East,87,0.0,3.0,76,0.00,,---,0.01,VWS V14.01,2013-01-10 23:49:00,
2013-01-10 18:53:00,73.7,66.1,30.21,East,87,1.0,1.0,77,0.00,,---,0.01,VWS V14.01,2013-01-10 23:53:00,
2013-01-10 18:54:00,73.7,65.7,30.21,East,87,0.0,1.0,76,0.00,,---,0.01,VWS V14.01,2013-01-10 23:54:00,
2013-01-10 18:58:00,73.7,65.7,30.21,East,85,2.0,2.0,76,0.00,,---,0.01,VWS V14.01,2013-01-10 23:58:00,
2013-01-10 19:00:00,73.7,65.7,30.21,East,94,1.0,2.0,76,0.00,,---,0.01,VWS V14.01,2013-01-11 00:00:00,
2013-01-10 19:03:00,73.7,65.7,30.21,ESE,111,0.0,3.0,76,0.00,,---,0.01,VWS V14.01,2013-01-11 00:03:00,
2013-01-10 19:04:00,73.7,65.7,30.21,ENE,74,1.0,3.0,76,0.00,,---,0.01,VWS V14.01,2013-01-11 00:04:00,
2013-01-10 19:06:00,73.8,65.8,30.21,East,90,0.0,3.0,76,0.00,,---,0.01,VWS V14.01,2013-01-11 00:06:00,
2013-01-10 19:08:00,73.8,65.8,30.22,NE,42,4.0,4.0,76,0.00,,---,0.01,VWS V14.01,2013-01-11 00:08:00,
2013-01-10 19:09:00,73.8,65.4,30.22,ENE,74,2.0,4.0,75,0.00,,---,0.01,VWS V14.01,2013-01-11 00:09:00,
2013-01-10 19:11:00,73.9,65.5,30.22,ENE,74,2.0,2.0,75,0.00,,---,0.01,VWS V14.01,2013-01-11 00:11:00,
2013-01-10 19:14:00,74.1,65.7,30.22,NE,55,1.0,4.0,75,0.00,,---,0.01,VWS V14.01,2013-01-11 00:14:00,
2013-01-10 19:15:00,74.1,65.7,30.22,ESE,110,1.0,4.0,75,0.00,,---,0.01,VWS V14.01,2013-01-11 00:15:00,
2013-01-10 19:17:00,74.2,65.8,30.22,ESE,105,1.0,2.0,75,0.00,,---,0.01,VWS V14.01,2013-01-11 00:17:00,
2013-01-10 19:20:00,74.3,65.9,30.22,East,98,1.0,2.0,75,0.00,,---,0.01,VWS V14.01,2013-01-11 00:20:00,
2013-01-10 19:21:00,74.3,65.9,30.22,East,98,0.0,1.0,75,0.00,,---,0.01,VWS V14.01,2013-01-11 00:21:00,
2013-01-10 19:22:00,74.3,65.9,30.22,East,98,1.0,2.0,75,0.00,,---,0.01,VWS V14.01,2013-01-11 00:22:00,
2013-01-10 19:25:00,74.4,66.0,30.22,ENE,63,1.0,3.0,75,0.00,,---,0.01,VWS V14.01,2013-01-11 00:25:00,
2013-01-10 19:27:00,74.4,66.0,30.22,ENE,63,1.0,1.0,75,0.00,,---,0.01,VWS V14.01,2013-01-11 00:27:00,
2013-01-10 19:30:00,74.4,66.0,30.22,East,91,1.0,2.0,75,0.00,,---,0.01,VWS V14.01,2013-01-11 00:30:00,
2013-01-10 19:31:00,74.4,66.0,30.22,East,91,0.0,1.0,75,0.00,,---,0.01,VWS V14.01,2013-01-11 00:31:00,
2013-01-10 19:33:00,74.4,66.0,30.22,East,91,0.0,1.0,75,0.00,,---,0.01,VWS V14.01,2013-01-11 00:33:00,
2013-01-10 19:36:00,74.4,65.6,30.22,ENE,63,3.0,3.0,74,0.00,,---,0.01,VWS V14.01,2013-01-11 00:36:00,
2013-01-10 19:37:00,74.4,65.6,30.22,ENE,61,1.0,3.0,74,0.00,,---,0.01,VWS V14.01,2013-01-11 00:37:00,
2013-01-10 19:38:00,74.4,66.0,30.22,East,92,3.0,3.0,75,0.00,,---,0.01,VWS V14.01,2013-01-11 00:38:00,
2013-01-10 19:41:00,74.4,66.0,30.22,ESE,111,1.0,1.0,75,0.00,,---,0.01,VWS V14.01,2013-01-11 00:41:00,
2013-01-10 19:43:00,74.4,66.0,30.22,ESE,111,1.0,1.0,75,0.00,,---,0.01,VWS V14.01,2013-01-11 00:43:00,
2013-01-10 19:45:00,74.4,66.0,30.23,East,99,2.0,2.0,75,0.00,,---,0.01,VWS V14.01,2013-01-11 00:45:00,
2013-01-10 19:46:00,74.4,66.0,30.22,East,99,1.0,2.0,75,0.00,,---,0.01,VWS V14.01,2013-01-11 00:46:00,
2013-01-10 19:48:00,74.4,66.0,30.23,ENE,67,1.0,4.0,75,0.00,,---,0.01,VWS V14.01,2013-01-11 00:48:00,
2013-01-10 19:50:00,74.4,66.0,30.23,ESE,111,1.0,4.0,75,0.00,,---,0.01,VWS V14.01,2013-01-11 00:50:00,
2013-01-10 19:52:00,74.4,66.0,30.23,ENE,75,0.0,2.0,75,0.00,,---,0.01,VWS V14.01,2013-01-11 00:52:00,
2013-01-10 19:53:00,74.4,66.3,30.23,East,84,2.0,2.0,76,0.00,,---,0.01,VWS V14.01,2013-01-11 00:53:00,
2013-01-10 19:56:00,74.3,65.9,30.23,East,84,1.0,3.0,75,0.00,,---,0.01,VWS V14.01,2013-01-11 00:56:00,
2013-01-10 19:58:00,74.3,66.2,30.23,ESE,118,1.0,5.0,76,0.00,,---,0.01,VWS V14.01,2013-01-11 00:58:00,
2013-01-10 19:59:00,74.3,66.2,30.23,ESE,115,1.0,5.0,76,0.00,,---,0.01,VWS V14.01,2013-01-11 00:59:00,
2013-01-10 20:01:00,74.4,66.3,30.23,ENE,63,2.0,5.0,76,0.00,,---,0.01,VWS V14.01,2013-01-11 01:01:00,
2013-01-10 20:03:00,74.3,66.2,30.23,ENE,63,2.0,2.0,76,0.00,,---,0.01,VWS V14.01,2013-01-11 01:03:00,
2013-01-10 20:04:00,74.3,66.2,30.23,East,94,3.0,5.0,76,0.00,,---,0.01,VWS V14.01,2013-01-11 01:04:00,
2013-01-10 20:06:00,74.3,66.2,30.23,East,87,1.0,5.0,76,0.00,,---,0.01,VWS V14.01,2013-01-11 01:06:00,
2013-01-10 20:09:00,74.2,66.2,30.23,East,84,1.0,1.0,76,0.00,,---,0.01,VWS V14.01,2013-01-11 01:09:00,
2013-01-10 20:10:00,74.2,66.2,30.23,East,84,0.0,1.0,76,0.00,,---,0.01,VWS V14.01,2013-01-11 01:10:00,
2013-01-10 20:11:00,74.2,66.2,30.23,East,88,0.0,2.0,76,0.00,,---,0.01,VWS V14.01,2013-01-11 01:11:00,
2013-01-10 20:14:00,74.0,66.3,30.23,East,88,1.0,2.0,77,0.00,,---,0.01,VWS V14.01,2013-01-11 01:14:00,
2013-01-10 20:15:00,74.0,66.3,30.23,NE,53,1.0,3.0,77,0.00,,---,0.01,VWS V14.01,2013-01-11 01:15:00,
2013-01-10 20:16:00,74.0,66.3,30.23,East,96,0.0,2.0,77,0.00,,---,0.01,VWS V14.01,2013-01-11 01:16:00,
2013-01-10 20:20:00,73.8,66.2,30.23,NE,56,2.0,2.0,77,0.00,,---,0.01,VWS V14.01,2013-01-11 01:20:00,
2013-01-10 20:21:00,73.8,66.5,30.23,ENE,59,3.0,3.0,78,0.00,,---,0.01,VWS V14.01,2013-01-11 01:21:00,
2013-01-10 20:26:00,73.6,66.3,30.23,East,100,0.0,0.0,78,0.00,,---,0.01,VWS V14.01,2013-01-11 01:26:00,
2013-01-10 20:27:00,73.6,66.3,30.23,East,84,1.0,2.0,78,0.00,,---,0.01,VWS V14.01,2013-01-11 01:27:00,
2013-01-10 20:32:00,73.4,66.5,30.23,East,83,1.0,2.0,79,0.00,,---,0.01,VWS V14.01,2013-01-11 01:32:00,
2013-01-10 20:33:00,73.3,66.4,30.23,NE,47,2.0,3.0,79,0.00,,---,0.01,VWS V14.01,2013-01-11 01:33:00,
2013-01-10 20:37:00,73.2,66.3,30.24,NE,55,1.0,1.0,79,0.00,,---,0.01,VWS V14.01,2013-01-11 01:37:00,
2013-01-10 20:38:00,73.2,66.7,30.24,NE,55,2.0,2.0,80,0.00,,---,0.01,VWS V14.01,2013-01-11 01:38:00,
2013-01-10 20:39:00,73.1,66.6,30.24,ENE,71,1.0,2.0,80,0.00,,---,0.01,VWS V14.01,2013-01-11 01:39:00,
2013-01-10 20:43:00,73.1,66.6,30.24,East,86,0.0,2.0,80,0.00,,---,0.01,VWS V14.01,2013-01-11 01:43:00,
2013-01-10 20:44:00,73.1,66.6,30.24,ESE,103,0.0,3.0,80,0.00,,---,0.01,VWS V14.01,2013-01-11 01:44:00,
2013-01-10 20:48:00,73.1,66.6,30.24,ENE,66,1.0,2.0,80,0.00,,---,0.01,VWS V14.01,2013-01-11 01:48:00,
2013-01-10 20:49:00,73.1,66.6,30.24,ENE,66,1.0,2.0,80,0.00,,---,0.01,VWS V14.01,2013-01-11 01:49:00,
2013-01-10 20:54:00,73.1,66.9,30.24,ENE,75,1.0,1.0,81,0.00,,---,0.01,VWS V14.01,2013-01-11 01:54:00,
2013-01-10 20:55:00,73.1,66.9,30.24,NE,51,3.0,3.0,81,0.00,,---,0.01,VWS V14.01,2013-01-11 01:55:00,
2013-01-10 20:59:00,73.2,67.0,30.24,ESE,110,0.0,3.0,81,0.00,,---,0.01,VWS V14.01,2013-01-11 01:59:00,
2013-01-10 21:00:00,73.2,67.0,30.24,ESE,110,0.0,3.0,81,0.00,,---,0.01,VWS V14.01,2013-01-11 02:00:00,
2013-01-10 21:01:00,73.2,67.0,30.24,ESE,109,1.0,2.0,81,0.00,,---,0.01,VWS V14.01,2013-01-11 02:01:00,
2013-01-10 21:05:00,73.3,67.1,30.25,ESE,122,0.0,4.0,81,0.00,,---,0.01,VWS V14.01,2013-01-11 02:05:00,
2013-01-10 21:06:00,73.3,66.8,30.24,ESE,121,1.0,1.0,80,0.00,,---,0.01,VWS V14.01,2013-01-11 02:06:00,
2013-01-10 21:07:00,73.3,66.8,30.24,ESE,121,1.0,1.0,80,0.00,,---,0.01,VWS V14.01,2013-01-11 02:07:00,
2013-01-10 21:10:00,73.3,66.8,30.25,ESE,103,3.0,3.0,80,0.00,,---,0.01,VWS V14.01,2013-01-11 02:10:00,
2013-01-10 21:11:00,73.3,66.8,30.25,ESE,113,1.0,2.0,80,0.00,,---,0.01,VWS V14.01,2013-01-11 02:11:00,
2013-01-10 21:12:00,73.3,66.8,30.25,ESE,114,1.0,2.0,80,0.00,,---,0.01,VWS V14.01,2013-01-11 02:12:00,
2013-01-10 21:15:00,73.3,66.8,30.25,NE,56,1.0,3.0,80,0.00,,---,0.01,VWS V14.01,2013-01-11 02:15:00,
2013-01-10 21:16:00,73.2,66.7,30.25,ESE,116,2.0,3.0,80,0.00,,---,0.01,VWS V14.01,2013-01-11 02:16:00,
2013-01-10 21:18:00,73.2,66.7,30.25,ESE,105,0.0,3.0,80,0.00,,---,0.01,VWS V14.01,2013-01-11 02:18:00,
2013-01-10 21:20:00,73.3,66.8,30.25,ESE,105,1.0,3.0,80,0.00,,---,0.01,VWS V14.01,2013-01-11 02:20:00,
2013-01-10 21:21:00,73.3,66.8,30.25,ESE,105,0.0,1.0,80,0.00,,---,0.01,VWS V14.01,2013-01-11 02:21:00,
2013-01-10 21:23:00,73.2,66.7,30.25,ESE,103,0.0,2.0,80,0.00,,---,0.01,VWS V14.01,2013-01-11 02:23:00,
2013-01-10 21:25:00,73.2,66.7,30.25,ESE,122,2.0,4.0,80,0.00,,---,0.01,VWS V14.01,2013-01-11 02:25:00,
2013-01-10 21:26:00,73.2,66.3,30.25,ESE,123,2.0,3.0,79,0.00,,---,0.01,VWS V14.01,2013-01-11 02:26:00,
2013-01-10 21:29:00,73.2,66.7,30.25,ESE,123,2.0,3.0,80,0.00,,---,0.01,VWS V14.01,2013-01-11 02:29:00,
2013-01-10 21:31:00,73.1,66.6,30.25,ENE,78,1.0,3.0,80,0.00,,---,0.01,VWS V14.01,2013-01-11 02:31:00,
2013-01-10 21:32:00,73.1,66.6,30.25,ESE,105,3.0,3.0,80,0.00,,---,0.01,VWS V14.01,2013-01-11 02:32:00,
2013-01-10 21:34:00,73.1,66.2,30.25,NE,42,0.0,3.0,79,0.00,,---,0.01,VWS V14.01,2013-01-11 02:34:00,
2013-01-10 21:37:00,73.0,66.5,30.25,ENE,77,1.0,1.0,80,0.00,,---,0.01,VWS V14.01,2013-01-11 02:37:00,
2013-01-10 21:38:00,73.0,66.5,30.25,ENE,77,1.0,1.0,80,0.00,,---,0.01,VWS V14.01,2013-01-11 02:38:00,
2013-01-10 21:40:00,72.9,66.4,30.25,ENE,71,2.0,2.0,80,0.00,,---,0.01,VWS V14.01,2013-01-11 02:40:00,
2013-01-10 21:43:00,72.9,66.4,30.25,ENE,72,2.0,4.0,80,0.00,,---,0.01,VWS V14.01,2013-01-11 02:43:00,
2013-01-10 21:46:00,72.8,66.3,30.25,East,93,3.0,3.0,80,0.00,,---,0.01,VWS V14.01,2013-01-11 02:46:00,
2013-01-10 21:48:00,72.7,66.2,30.25,ESE,102,1.0,3.0,80,0.00,,---,0.01,VWS V14.01,2013-01-11 02:48:00,
2013-01-10 21:51:00,72.6,66.1,30.25,ENE,72,1.0,1.0,80,0.00,,---,0.01,VWS V14.01,2013-01-11 02:51:00,
2013-01-10 21:53:00,72.4,65.9,30.25,ESE,103,1.0,2.0,80,0.00,,---,0.01,VWS V14.01,2013-01-11 02:53:00,
2013-01-10 21:54:00,72.4,65.9,30.25,ENE,76,2.0,2.0,80,0.00,,---,0.01,VWS V14.01,2013-01-11 02:54:00,
2013-01-10 21:56:00,72.3,65.8,30.25,ENE,64,1.0,2.0,80,0.00,,---,0.01,VWS V14.01,2013-01-11 02:56:00,
2013-01-10 21:58:00,72.2,65.7,30.25,NNE,23,3.0,4.0,80,0.00,,---,0.01,VWS V14.01,2013-01-11 02:58:00,
2013-01-10 21:59:00,72.2,65.7,30.25,East,82,1.0,4.0,80,0.00,,---,0.01,VWS V14.01,2013-01-11 02:59:00,
2013-01-10 22:02:00,72.1,65.6,30.25,ENE,76,1.0,2.0,80,0.00,,---,0.01,VWS V14.01,2013-01-11 03:02:00,
2013-01-10 22:04:00,72.0,65.5,30.25,ENE,70,1.0,6.0,80,0.00,,---,0.01,VWS V14.01,2013-01-11 03:04:00,
2013-01-10 22:05:00,72.0,65.5,30.25,ENE,70,1.0,6.0,80,0.00,,---,0.01,VWS V14.01,2013-01-11 03:05:00,
2013-01-10 22:07:00,72.0,65.9,30.25,East,80,0.0,2.0,81,0.00,,---,0.01,VWS V14.01,2013-01-11 03:07:00,
2013-01-10 22:09:00,71.9,65.4,30.25,ESE,103,2.0,7.0,80,0.00,,---,0.01,VWS V14.01,2013-01-11 03:09:00,
2013-01-10 22:10:00,71.9,65.4,30.25,East,82,5.0,7.0,80,0.00,,---,0.01,VWS V14.01,2013-01-11 03:10:00,
2013-01-10 22:14:00,71.8,65.3,30.25,ESE,110,2.0,7.0,80,0.00,,---,0.01,VWS V14.01,2013-01-11 03:14:00,
2013-01-10 22:15:00,71.8,65.3,30.25,East,101,2.0,7.0,80,0.00,,---,0.01,VWS V14.01,2013-01-11 03:15:00,
2013-01-10 22:16:00,71.8,65.3,30.25,East,101,1.0,1.0,80,0.00,,---,0.01,VWS V14.01,2013-01-11 03:16:00,
2013-01-10 22:19:00,71.7,65.2,30.25,East,101,0.0,3.0,80,0.00,,---,0.01,VWS V14.01,2013-01-11 03:19:00,
2013-01-10 22:20:00,71.7,65.2,30.25,ESE,112,1.0,7.0,80,0.00,,---,0.01,VWS V14.01,2013-01-11 03:20:00,
2013-01-10 22:21:00,71.7,65.2,30.25,East,90,3.0,3.0,80,0.00,,---,0.01,VWS V14.01,2013-01-11 03:21:00,
2013-01-10 22:26:00,71.7,65.2,30.25,East,94,2.0,6.0,80,0.00,,---,0.01,VWS V14.01,2013-01-11 03:26:00,
2013-01-10 22:27:00,71.7,65.2,30.25,East,90,1.0,3.0,80,0.00,,---,0.01,VWS V14.01,2013-01-11 03:27:00,
2013-01-10 22:31:00,71.6,65.1,30.25,ESE,117,0.0,1.0,80,0.00,,---,0.01,VWS V14.01,2013-01-11 03:31:00,
2013-01-10 22:32:00,71.6,65.1,30.26,East,83,2.0,3.0,80,0.00,,---,0.01,VWS V14.01,2013-01-11 03:32:00,
2013-01-10 22:37:00,71.5,65.0,30.26,East,96,0.0,2.0,80,0.00,,---,0.01,VWS V14.01,2013-01-11 03:37:00,
2013-01-10 22:42:00,71.4,64.9,30.26,East,101,3.0,4.0,80,0.00,,---,0.01,VWS V14.01,2013-01-11 03:42:00,
2013-01-10 22:43:00,71.4,64.9,30.26,East,101,0.0,4.0,80,0.00,,---,0.01,VWS V14.01,2013-01-11 03:43:00,
2013-01-10 22:47:00,71.3,64.8,30.27,East,91,2.0,5.0,80,0.00,,---,0.01,VWS V14.01,2013-01-11 03:47:00,
2013-01-10 22:48:00,71.3,64.8,30.26,NNE,32,3.0,5.0,80,0.00,,---,0.01,VWS V14.01,2013-01-11 03:48:00,
2013-01-10 22:49:00,71.3,64.8,30.27,ENE,78,1.0,5.0,80,0.00,,---,0.01,VWS V14.01,2013-01-11 03:49:00,
2013-01-10 22:52:00,71.3,64.8,30.26,ESE,109,4.0,4.0,80,0.00,,---,0.01,VWS V14.01,2013-01-11 03:52:00,
2013-01-10 22:53:00,71.3,64.8,30.26,ESE,103,2.0,4.0,80,0.00,,---,0.01,VWS V14.01,2013-01-11 03:53:00,
2013-01-10 22:55:00,71.3,64.8,30.26,East,85,1.0,4.0,80,0.00,,---,0.01,VWS V14.01,2013-01-11 03:55:00,
2013-01-10 22:57:00,71.2,64.7,30.27,East,94,1.0,4.0,80,0.00,,---,0.01,VWS V14.01,2013-01-11 03:57:00,
2013-01-10 22:59:00,71.2,64.7,30.26,East,97,2.0,4.0,80,0.00,,---,0.01,VWS V14.01,2013-01-11 03:59:00,
2013-01-10 23:00:00,71.2,64.7,30.26,East,87,1.0,4.0,80,0.00,,---,0.01,VWS V14.01,2013-01-11 04:00:00,
2013-01-10 23:03:00,71.1,64.6,30.26,SE,132,1.0,4.0,80,0.00,,---,0.01,VWS V14.01,2013-01-11 04:03:00,
2013-01-10 23:05:00,71.1,64.6,30.26,East,100,1.0,4.0,80,0.00,,---,0.01,VWS V14.01,2013-01-11 04:05:00,
2013-01-10 23:06:00,71.1,64.6,30.26,NNE,19,4.0,6.0,80,0.00,,---,0.01,VWS V14.01,2013-01-11 04:06:00,
2013-01-10 23:09:00,71.0,64.5,30.26,ENE,75,1.0,6.0,80,0.00,,---,0.01,VWS V14.01,2013-01-11 04:09:00,
2013-01-10 23:10:00,70.9,64.4,30.26,ENE,75,2.0,6.0,80,0.00,,---,0.01,VWS V14.01,2013-01-11 04:10:00,
2013-01-10 23:12:00,70.9,64.4,30.26,East,83,0.0,2.0,80,0.00,,---,0.01,VWS V14.01,2013-01-11 04:12:00,
2013-01-10 23:15:00,70.8,64.3,30.26,ENE,73,1.0,3.0,80,0.00,,---,0.01,VWS V14.01,2013-01-11 04:15:00,
2013-01-10 23:18:00,70.7,64.2,30.27,East,91,3.0,5.0,80,0.00,,---,0.01,VWS V14.01,2013-01-11 04:18:00,
2013-01-10 23:21:00,70.7,64.2,30.27,East,96,0.0,5.0,80,0.00,,---,0.01,VWS V14.01,2013-01-11 04:21:00,
2013-01-10 23:23:00,70.6,64.5,30.27,ESE,109,0.0,5.0,81,0.00,,---,0.01,VWS V14.01,2013-01-11 04:23:00,
2013-01-10 23:26:00,70.5,64.4,30.27,ESE,109,0.0,1.0,81,0.00,,---,0.01,VWS V14.01,2013-01-11 04:26:00,
2013-01-10 23:28:00,70.5,64.4,30.27,SE,146,4.0,5.0,81,0.00,,---,0.01,VWS V14.01,2013-01-11 04:28:00,
2013-01-10 23:29:00,70.4,64.3,30.27,East,101,2.0,5.0,81,0.00,,---,0.01,VWS V14.01,2013-01-11 04:29:00,
2013-01-10 23:32:00,70.3,64.2,30.27,ENE,73,2.0,2.0,81,0.00,,---,0.01,VWS V14.01,2013-01-11 04:32:00,
2013-01-10 23:34:00,70.3,64.2,30.26,ENE,65,2.0,3.0,81,0.00,,---,0.01,VWS V14.01,2013-01-11 04:34:00,
2013-01-10 23:35:00,70.3,64.2,30.26,ENE,65,2.0,3.0,81,0.00,,---,0.01,VWS V14.01,2013-01-11 04:35:00,
2013-01-10 23:37:00,70.2,64.1,30.26,East,81,1.0,2.0,81,0.00,,---,0.01,VWS V14.01,2013-01-11 04:37:00,
2013-01-10 23:40:00,70.1,64.0,30.27,East,93,0.0,3.0,81,0.00,,---,0.01,VWS V14.01,2013-01-11 04:40:00,
2013-01-10 23:41:00,70.1,64.0,30.27,ESE,123,1.0,1.0,81,0.00,,---,0.01,VWS V14.01,2013-01-11 04:41:00,
2013-01-10 23:43:00,70.1,64.0,30.26,East,92,2.0,2.0,81,0.00,,---,0.01,VWS V14.01,2013-01-11 04:43:00,
2013-01-10 23:45:00,70.1,64.4,30.26,ESE,122,0.0,3.0,82,0.00,,---,0.01,VWS V14.01,2013-01-11 04:45:00,
2013-01-10 23:47:00,70.1,64.4,30.26,ESE,122,0.0,1.0,82,0.00,,---,0.01,VWS V14.01,2013-01-11 04:47:00,
2013-01-10 23:48:00,70.1,64.4,30.26,ESE,122,0.0,1.0,82,0.00,,---,0.01,VWS V14.01,2013-01-11 04:48:00,
2013-01-10 23:52:00,70.0,64.3,30.26,East,87,0.0,2.0,82,0.00,,---,0.01,VWS V14.01,2013-01-11 04:52:00,
2013-01-10 23:53:00,70.0,64.3,30.26,ESE,103,3.0,3.0,82,0.00,,---,0.01,VWS V14.01,2013-01-11 04:53:00,
2013-01-10 23:58:00,69.9,64.2,30.26,East,86,2.0,3.0,82,0.00,,---,0.01,VWS V14.01,2013-01-11 04:58:00,
2013-01-10 23:59:00,69.9,64.2,30.26,East,86,2.0,3.0,82,0.00,,---,0.01,VWS V14.01,2013-01-11 04:59:00,